Time,TemperatureF,DewpointF,PressureIn,WindDirection,WindDirectionDegrees,WindSpeedMPH,WindSpeedGustMPH,Humidity,HourlyPrecipIn,Conditions,Clouds,dailyrainin,SoftwareType,DateUTC
2013-11-15 00:00:00,35.5,22.1,29.56,NW,315,2.0,6.9,58,0.00,,,0.00,WUHU216HW,2013-11-15 07:00:00,
2013-11-15 00:01:00,35.6,22.3,29.56,NNW,338,4.3,6.9,58,0.00,,,0.00,WUHU216HW,2013-11-15 07:01:00,
2013-11-15 00:02:00,35.6,22.3,29.56,West,270,0.7,6.9,58,0.00,,,0.00,WUHU216HW,2013-11-15 07:02:00,
2013-11-15 00:04:00,35.5,22.1,29.56,ENE,68,1.1,6.9,58,0.00,,,0.00,WUHU216HW,2013-11-15 07:04:00,
2013-11-15 00:05:00,35.3,22.0,29.56,ENE,68,0.4,6.9,58,0.00,,,0.00,WUHU216HW,2013-11-15 07:05:00,
2013-11-15 00:06:00,35.1,22.2,29.56,NE,45,2.2,6.9,59,0.00,,,0.00,WUHU216HW,2013-11-15 07:06:00,
2013-11-15 00:07:00,34.9,21.6,29.56,East,90,4.0,6.9,58,0.00,,,0.00,WUHU216HW,2013-11-15 07:07:00,
2013-11-15 00:09:00,34.2,22.5,29.56,NNW,338,1.8,5.1,62,0.00,,,0.00,WUHU216HW,2013-11-15 07:09:00,
2013-11-15 00:11:00,33.1,21.5,29.56,SE,135,4.3,5.4,62,0.00,,,0.00,WUHU216HW,2013-11-15 07:11:00,
2013-11-15 00:12:00,32.8,21.5,29.56,East,90,8.5,8.5,63,0.00,,,0.00,WUHU216HW,2013-11-15 07:12:00,
2013-11-15 00:14:00,32.2,21.4,29.56,SSE,158,4.7,8.5,64,0.00,,,0.00,WUHU216HW,2013-11-15 07:14:00,
2013-11-15 00:16:00,31.9,21.4,29.56,ENE,68,2.9,8.5,65,0.00,,,0.00,WUHU216HW,2013-11-15 07:16:00,
2013-11-15 00:17:00,31.9,21.8,29.56,NNW,338,3.1,8.5,66,0.00,,,0.00,WUHU216HW,2013-11-15 07:17:00,
2013-11-15 00:19:00,31.5,21.1,29.56,SSW,203,6.3,8.5,65,0.00,,,0.00,WUHU216HW,2013-11-15 07:19:00,
2013-11-15 00:21:00,31.3,20.9,29.56,SE,135,3.8,8.5,65,0.00,,,0.00,WUHU216HW,2013-11-15 07:21:00,
2013-11-15 00:22:00,31.3,20.9,29.56,SE,135,3.8,8.5,65,0.00,,,0.00,WUHU216HW,2013-11-15 07:22:00,
2013-11-15 00:24:00,31.0,20.9,29.56,SSW,203,1.1,6.9,66,0.00,,,0.00,WUHU216HW,2013-11-15 07:24:00,
2013-11-15 00:27:00,30.6,20.9,29.56,SSW,203,2.5,6.3,67,0.00,,,0.00,WUHU216HW,2013-11-15 07:27:00,
2013-11-15 00:29:00,30.4,20.3,29.56,SSW,203,1.1,6.3,66,0.00,,,0.00,WUHU216HW,2013-11-15 07:29:00,
2013-11-15 00:32:00,30.2,20.2,29.56,SSE,158,2.5,4.9,66,0.00,,,0.00,WUHU216HW,2013-11-15 07:32:00,
2013-11-15 00:33:00,30.1,20.0,29.56,SSW,203,1.8,4.9,66,0.00,,,0.00,WUHU216HW,2013-11-15 07:33:00,
2013-11-15 00:34:00,30.1,20.0,29.56,SW,225,1.6,4.9,66,0.00,,,0.00,WUHU216HW,2013-11-15 07:34:00,
2013-11-15 00:37:00,29.9,20.5,29.56,North,0,2.9,2.9,68,0.00,,,0.00,WUHU216HW,2013-11-15 07:37:00,
2013-11-15 00:38:00,29.9,20.2,29.56,WSW,248,1.1,2.9,67,0.00,,,0.00,WUHU216HW,2013-11-15 07:38:00,
2013-11-15 00:40:00,30.8,20.7,29.56,NW,315,13.9,13.9,66,0.00,,,0.00,WUHU216HW,2013-11-15 07:40:00,
2013-11-15 00:42:00,33.3,22.1,29.56,North,0,4.0,15.7,63,0.00,,,0.00,WUHU216HW,2013-11-15 07:42:00,
2013-11-15 00:43:00,33.5,21.8,29.56,North,0,3.6,15.7,62,0.00,,,0.00,WUHU216HW,2013-11-15 07:43:00,
2013-11-15 00:44:00,34.0,22.0,29.56,North,0,8.3,15.7,61,0.00,,,0.00,WUHU216HW,2013-11-15 07:44:00,
2013-11-15 00:45:00,34.2,21.8,29.56,North,0,5.6,15.7,60,0.00,,,0.00,WUHU216HW,2013-11-15 07:45:00,
2013-11-15 00:47:00,34.9,21.3,29.56,NW,315,4.9,15.7,57,0.00,,,0.00,WUHU216HW,2013-11-15 07:47:00,
2013-11-15 00:48:00,34.9,21.6,29.56,NNW,338,5.4,15.7,58,0.00,,,0.00,WUHU216HW,2013-11-15 07:48:00,
2013-11-15 00:49:00,35.1,21.8,29.56,North,0,5.4,15.7,58,0.00,,,0.00,WUHU216HW,2013-11-15 07:49:00,
2013-11-15 00:50:00,35.3,22.0,29.55,NNW,338,3.8,15.7,58,0.00,,,0.00,WUHU216HW,2013-11-15 07:50:00,
2013-11-15 00:53:00,35.3,21.6,29.56,NNE,23,1.1,8.3,57,0.00,,,0.00,WUHU216HW,2013-11-15 07:53:00,
2013-11-15 00:54:00,35.1,21.0,29.56,NNW,338,0.4,8.3,56,0.00,,,0.00,WUHU216HW,2013-11-15 07:54:00,
2013-11-15 00:55:00,35.3,21.2,29.55,East,90,4.5,7.4,56,0.00,,,0.00,WUHU216HW,2013-11-15 07:55:00,
2013-11-15 00:58:00,34.6,20.9,29.56,North,0,2.0,7.4,57,0.00,,,0.00,WUHU216HW,2013-11-15 07:58:00,
2013-11-15 00:59:00,34.0,20.7,29.55,ENE,68,4.7,7.4,58,0.00,,,0.00,WUHU216HW,2013-11-15 07:59:00,
2013-11-15 01:00:00,33.5,20.7,29.55,NNE,23,2.7,7.4,59,0.00,,,0.00,WUHU216HW,2013-11-15 08:00:00,
2013-11-15 01:03:00,32.8,20.0,29.55,ESE,113,1.3,6.3,59,0.00,,,0.00,WUHU216HW,2013-11-15 08:03:00,
2013-11-15 01:04:00,32.8,20.4,29.55,ENE,68,4.0,6.3,60,0.00,,,0.00,WUHU216HW,2013-11-15 08:04:00,
2013-11-15 01:05:00,32.6,20.3,29.55,ENE,68,4.0,6.3,60,0.00,,,0.00,WUHU216HW,2013-11-15 08:05:00,
2013-11-15 01:08:00,32.4,20.2,29.55,NW,315,1.1,6.3,60,0.00,,,0.00,WUHU216HW,2013-11-15 08:08:00,
2013-11-15 01:09:00,32.4,20.5,29.55,North,0,1.1,5.4,61,0.00,,,0.00,WUHU216HW,2013-11-15 08:09:00,
2013-11-15 01:10:00,32.4,20.5,29.55,NE,45,3.4,5.4,61,0.00,,,0.00,WUHU216HW,2013-11-15 08:10:00,
2013-11-15 01:13:00,32.6,20.6,29.55,NW,315,2.0,5.4,61,0.00,,,0.00,WUHU216HW,2013-11-15 08:13:00,
2013-11-15 01:14:00,32.8,20.0,29.55,WNW,293,9.2,9.2,59,0.00,,,0.00,WUHU216HW,2013-11-15 08:14:00,
2013-11-15 01:15:00,32.8,20.4,29.55,WNW,293,7.8,9.2,60,0.00,,,0.00,WUHU216HW,2013-11-15 08:15:00,
2013-11-15 01:18:00,34.0,20.4,29.54,WNW,293,7.4,9.2,57,0.00,,,0.00,WUHU216HW,2013-11-15 08:18:00,
2013-11-15 01:20:00,34.6,20.4,29.54,NW,315,6.9,9.2,56,0.00,,,0.00,WUHU216HW,2013-11-15 08:20:00,
2013-11-15 01:23:00,35.3,20.3,29.54,West,270,4.5,11.0,54,0.00,,,0.00,WUHU216HW,2013-11-15 08:23:00,
2013-11-15 01:24:00,35.5,20.4,29.54,West,270,4.5,11.0,54,0.00,,,0.00,WUHU216HW,2013-11-15 08:24:00,
2013-11-15 01:25:00,35.5,20.9,29.54,NW,315,1.1,11.0,55,0.00,,,0.00,WUHU216HW,2013-11-15 08:25:00,
2013-11-15 01:26:00,35.5,20.9,29.54,WNW,293,3.4,11.0,55,0.00,,,0.00,WUHU216HW,2013-11-15 08:26:00,
2013-11-15 01:28:00,35.3,20.3,29.54,NW,315,1.8,11.0,54,0.00,,,0.00,WUHU216HW,2013-11-15 08:28:00,
2013-11-15 01:29:00,35.3,20.3,29.54,West,270,0.9,11.0,54,0.00,,,0.00,WUHU216HW,2013-11-15 08:29:00,
2013-11-15 01:30:00,35.1,20.1,29.54,WNW,293,2.5,11.0,54,0.00,,,0.00,WUHU216HW,2013-11-15 08:30:00,
2013-11-15 01:31:00,34.9,19.9,29.54,West,270,5.8,11.0,54,0.00,,,0.00,WUHU216HW,2013-11-15 08:31:00,
2013-11-15 01:34:00,35.3,19.8,29.54,WSW,248,5.6,13.4,53,0.00,,,0.00,WUHU216HW,2013-11-15 08:34:00,
2013-11-15 01:35:00,35.3,19.8,29.54,WSW,248,4.0,13.4,53,0.00,,,0.00,WUHU216HW,2013-11-15 08:35:00,
2013-11-15 01:37:00,35.5,19.6,29.54,West,270,5.4,13.4,52,0.00,,,0.00,WUHU216HW,2013-11-15 08:37:00,
2013-11-15 01:39:00,35.6,19.8,29.54,NW,315,5.8,13.4,52,0.00,,,0.00,WUHU216HW,2013-11-15 08:39:00,
2013-11-15 01:40:00,35.6,19.8,29.54,WNW,293,4.3,13.4,52,0.00,,,0.00,WUHU216HW,2013-11-15 08:40:00,
2013-11-15 01:42:00,35.5,19.6,29.54,WNW,293,1.6,11.6,52,0.00,,,0.00,WUHU216HW,2013-11-15 08:42:00,
2013-11-15 01:44:00,35.5,19.6,29.54,NNW,338,2.5,6.9,52,0.00,,,0.00,WUHU216HW,2013-11-15 08:44:00,
2013-11-15 01:45:00,35.5,19.6,29.54,North,0,1.6,6.9,52,0.00,,,0.00,WUHU216HW,2013-11-15 08:45:00,
2013-11-15 01:46:00,35.5,19.2,29.54,WNW,293,4.3,6.3,51,0.00,,,0.00,WUHU216HW,2013-11-15 08:46:00,
2013-11-15 01:47:00,35.3,19.0,29.54,NNW,338,2.7,6.3,51,0.00,,,0.00,WUHU216HW,2013-11-15 08:47:00,
2013-11-15 01:49:00,35.5,19.2,29.54,North,0,1.1,6.3,51,0.00,,,0.00,WUHU216HW,2013-11-15 08:49:00,
2013-11-15 01:50:00,35.5,19.2,29.54,North,0,0.7,6.3,51,0.00,,,0.00,WUHU216HW,2013-11-15 08:50:00,
2013-11-15 01:51:00,35.6,18.9,29.54,North,0,0.7,4.3,50,0.00,,,0.00,WUHU216HW,2013-11-15 08:51:00,
2013-11-15 01:52:00,35.6,19.4,29.54,North,0,1.1,4.3,51,0.00,,,0.00,WUHU216HW,2013-11-15 08:52:00,
2013-11-15 01:54:00,35.3,19.0,29.54,NNW,338,9.2,9.2,51,0.00,,,0.00,WUHU216HW,2013-11-15 08:54:00,
2013-11-15 01:55:00,35.3,19.0,29.54,West,270,3.4,9.2,51,0.00,,,0.00,WUHU216HW,2013-11-15 08:55:00,
2013-11-15 01:56:00,35.3,19.0,29.54,WSW,248,3.4,9.2,51,0.00,,,0.00,WUHU216HW,2013-11-15 08:56:00,
2013-11-15 01:57:00,35.6,19.4,29.53,NW,315,4.7,9.2,51,0.00,,,0.00,WUHU216HW,2013-11-15 08:57:00,
2013-11-15 02:00:00,36.0,19.3,29.53,North,0,1.1,9.2,50,0.00,,,0.00,WUHU216HW,2013-11-15 09:00:00,
2013-11-15 02:01:00,36.0,19.3,29.53,North,0,1.8,9.2,50,0.00,,,0.00,WUHU216HW,2013-11-15 09:01:00,
2013-11-15 02:03:00,36.0,19.3,29.53,North,0,0.4,9.2,50,0.00,,,0.00,WUHU216HW,2013-11-15 09:03:00,
2013-11-15 02:05:00,35.8,19.5,29.53,NW,315,6.3,7.6,51,0.00,,,0.00,WUHU216HW,2013-11-15 09:05:00,
2013-11-15 02:06:00,35.6,19.4,29.53,North,0,4.9,7.6,51,0.00,,,0.00,WUHU216HW,2013-11-15 09:06:00,
2013-11-15 02:09:00,36.0,19.3,29.53,NNE,23,2.0,7.6,50,0.00,,,0.00,WUHU216HW,2013-11-15 09:09:00,
2013-11-15 02:10:00,36.2,19.4,29.53,North,0,5.6,7.6,50,0.00,,,0.00,WUHU216HW,2013-11-15 09:10:00,
2013-11-15 02:11:00,36.4,19.5,29.53,NNW,338,8.3,8.3,50,0.00,,,0.00,WUHU216HW,2013-11-15 09:11:00,
2013-11-15 02:12:00,36.2,19.4,29.53,NW,315,4.0,8.3,50,0.00,,,0.00,WUHU216HW,2013-11-15 09:12:00,
2013-11-15 02:14:00,36.4,19.5,29.53,NW,315,10.1,12.1,50,0.00,,,0.00,WUHU216HW,2013-11-15 09:14:00,
2013-11-15 02:15:00,36.5,19.2,29.53,NNW,338,6.3,12.1,49,0.00,,,0.00,WUHU216HW,2013-11-15 09:15:00,
2013-11-15 02:16:00,36.7,19.4,29.53,North,0,3.8,12.1,49,0.00,,,0.00,WUHU216HW,2013-11-15 09:16:00,
2013-11-15 02:17:00,36.7,19.4,29.53,North,0,5.1,12.1,49,0.00,,,0.00,WUHU216HW,2013-11-15 09:17:00,
2013-11-15 02:18:00,36.5,19.7,29.53,NNE,23,12.1,12.1,50,0.00,,,0.00,WUHU216HW,2013-11-15 09:18:00,
2013-11-15 02:19:00,36.4,20.0,29.53,NNE,23,6.9,12.1,51,0.00,,,0.00,WUHU216HW,2013-11-15 09:19:00,
2013-11-15 02:20:00,35.8,19.5,29.53,NNW,338,4.7,12.1,51,0.00,,,0.00,WUHU216HW,2013-11-15 09:20:00,
2013-11-15 02:21:00,35.6,19.8,29.53,North,0,4.0,12.1,52,0.00,,,0.00,WUHU216HW,2013-11-15 09:21:00,
2013-11-15 02:22:00,35.6,19.8,29.53,North,0,4.0,12.1,52,0.00,,,0.00,WUHU216HW,2013-11-15 09:22:00,
2013-11-15 02:23:00,35.3,19.8,29.53,NNW,338,1.6,12.1,53,0.00,,,0.00,WUHU216HW,2013-11-15 09:23:00,
2013-11-15 02:24:00,34.9,19.4,29.53,NW,315,1.1,12.1,53,0.00,,,0.00,WUHU216HW,2013-11-15 09:24:00,
2013-11-15 02:25:00,34.7,19.7,29.53,NE,45,2.2,12.1,54,0.00,,,0.00,WUHU216HW,2013-11-15 09:25:00,
2013-11-15 02:27:00,34.4,19.8,29.53,NE,45,5.4,12.1,55,0.00,,,0.00,WUHU216HW,2013-11-15 09:27:00,
2013-11-15 02:28:00,34.0,19.4,29.53,East,90,4.9,9.2,55,0.00,,,0.00,WUHU216HW,2013-11-15 09:28:00,
2013-11-15 02:29:00,33.7,19.5,29.53,ENE,68,2.5,6.9,56,0.00,,,0.00,WUHU216HW,2013-11-15 09:29:00,
2013-11-15 02:30:00,33.3,19.2,29.53,SE,135,0.7,6.9,56,0.00,,,0.00,WUHU216HW,2013-11-15 09:30:00,
2013-11-15 02:32:00,32.8,18.7,29.53,ESE,113,2.2,6.9,56,0.00,,,0.00,WUHU216HW,2013-11-15 09:32:00,
2013-11-15 02:34:00,32.0,18.1,29.53,South,180,4.7,6.9,56,0.00,,,0.00,WUHU216HW,2013-11-15 09:34:00,
2013-11-15 02:36:00,31.7,17.7,29.54,SSE,158,3.1,6.9,56,0.00,,,0.00,WUHU216HW,2013-11-15 09:36:00,
2013-11-15 02:37:00,31.3,18.3,29.54,ESE,113,3.1,6.5,58,0.00,,,0.00,WUHU216HW,2013-11-15 09:37:00,
2013-11-15 02:39:00,30.8,18.5,29.53,ENE,68,4.7,6.3,60,0.00,,,0.00,WUHU216HW,2013-11-15 09:39:00,
2013-11-15 02:41:00,30.4,19.6,29.53,North,0,1.8,6.3,64,0.00,,,0.00,WUHU216HW,2013-11-15 09:41:00,
2013-11-15 02:42:00,30.2,19.4,29.53,East,90,0.4,6.3,64,0.00,,,0.00,WUHU216HW,2013-11-15 09:42:00,
2013-11-15 02:45:00,29.9,18.4,29.53,SSE,158,2.9,5.6,62,0.00,,,0.00,WUHU216HW,2013-11-15 09:45:00,
2013-11-15 02:46:00,29.9,18.4,29.53,SSE,158,2.5,5.6,62,0.00,,,0.00,WUHU216HW,2013-11-15 09:46:00,
2013-11-15 02:47:00,29.9,18.4,29.53,ESE,113,2.0,5.6,62,0.00,,,0.00,WUHU216HW,2013-11-15 09:47:00,
2013-11-15 02:48:00,29.9,18.4,29.53,SSE,158,0.4,5.6,62,0.00,,,0.00,WUHU216HW,2013-11-15 09:48:00,
2013-11-15 02:50:00,29.9,19.1,29.53,NW,315,0.2,5.6,64,0.00,,,0.00,WUHU216HW,2013-11-15 09:50:00,
2013-11-15 02:51:00,29.7,19.7,29.53,ENE,68,3.6,5.6,66,0.00,,,0.00,WUHU216HW,2013-11-15 09:51:00,
2013-11-15 02:52:00,29.7,19.7,29.53,ENE,68,4.3,5.6,66,0.00,,,0.00,WUHU216HW,2013-11-15 09:52:00,
2013-11-15 02:53:00,29.7,19.7,29.53,North,0,6.7,6.7,66,0.00,,,0.00,WUHU216HW,2013-11-15 09:53:00,
2013-11-15 02:55:00,30.2,19.8,29.53,NE,45,7.8,8.7,65,0.00,,,0.00,WUHU216HW,2013-11-15 09:55:00,
2013-11-15 02:57:00,31.0,20.5,29.53,SSE,158,3.6,8.7,65,0.00,,,0.00,WUHU216HW,2013-11-15 09:57:00,
2013-11-15 02:59:00,31.1,20.0,29.53,East,90,1.1,8.7,63,0.00,,,0.00,WUHU216HW,2013-11-15 09:59:00,
2013-11-15 03:00:00,31.0,19.8,29.52,East,90,4.0,8.7,63,0.00,,,0.00,WUHU216HW,2013-11-15 10:00:00,
2013-11-15 03:02:00,31.0,19.8,29.52,East,90,3.4,8.7,63,0.00,,,0.00,WUHU216HW,2013-11-15 10:02:00,
2013-11-15 03:03:00,30.8,19.6,29.52,SSE,158,5.6,8.7,63,0.00,,,0.00,WUHU216HW,2013-11-15 10:03:00,
2013-11-15 03:04:00,30.6,19.8,29.53,South,180,2.5,8.7,64,0.00,,,0.00,WUHU216HW,2013-11-15 10:04:00,
2013-11-15 03:06:00,30.6,19.4,29.53,SE,135,2.5,6.3,63,0.00,,,0.00,WUHU216HW,2013-11-15 10:06:00,
2013-11-15 03:07:00,30.4,19.3,29.53,ESE,113,3.8,6.3,63,0.00,,,0.00,WUHU216HW,2013-11-15 10:07:00,
2013-11-15 03:08:00,30.4,19.6,29.52,ESE,113,4.7,6.3,64,0.00,,,0.00,WUHU216HW,2013-11-15 10:08:00,
2013-11-15 03:09:00,30.4,19.6,29.52,ESE,113,3.6,6.3,64,0.00,,,0.00,WUHU216HW,2013-11-15 10:09:00,
2013-11-15 03:11:00,30.2,19.8,29.52,NE,45,0.2,6.3,65,0.00,,,0.00,WUHU216HW,2013-11-15 10:11:00,
2013-11-15 03:12:00,30.2,20.2,29.52,East,90,0.4,6.3,66,0.00,,,0.00,WUHU216HW,2013-11-15 10:12:00,
2013-11-15 03:13:00,30.2,19.8,29.52,East,90,1.8,6.3,65,0.00,,,0.00,WUHU216HW,2013-11-15 10:13:00,
2013-11-15 03:14:00,30.2,19.8,29.52,ESE,113,2.5,6.3,65,0.00,,,0.00,WUHU216HW,2013-11-15 10:14:00,
2013-11-15 03:16:00,29.9,19.4,29.52,ESE,113,5.8,5.8,65,0.00,,,0.00,WUHU216HW,2013-11-15 10:16:00,
2013-11-15 03:17:00,29.9,19.8,29.52,ESE,113,6.5,6.5,66,0.00,,,0.00,WUHU216HW,2013-11-15 10:17:00,
2013-11-15 03:18:00,29.7,19.7,29.52,East,90,6.7,6.7,66,0.00,,,0.00,WUHU216HW,2013-11-15 10:18:00,
2013-11-15 03:19:00,29.7,19.7,29.52,ESE,113,4.0,6.7,66,0.00,,,0.00,WUHU216HW,2013-11-15 10:19:00,
2013-11-15 03:20:00,29.7,19.4,29.52,SSE,158,3.6,6.7,65,0.00,,,0.00,WUHU216HW,2013-11-15 10:20:00,
2013-11-15 03:22:00,29.5,19.2,29.52,SE,135,4.0,6.7,65,0.00,,,0.00,WUHU216HW,2013-11-15 10:22:00,
2013-11-15 03:23:00,29.5,19.5,29.52,SE,135,1.6,6.7,66,0.00,,,0.00,WUHU216HW,2013-11-15 10:23:00,
2013-11-15 03:24:00,29.5,19.2,29.52,SE,135,0.9,6.7,65,0.00,,,0.00,WUHU216HW,2013-11-15 10:24:00,
2013-11-15 03:25:00,29.5,19.2,29.52,SE,135,0.9,6.7,65,0.00,,,0.00,WUHU216HW,2013-11-15 10:25:00,
2013-11-15 03:27:00,29.5,19.2,29.52,SSE,158,2.5,6.7,65,0.00,,,0.00,WUHU216HW,2013-11-15 10:27:00,
2013-11-15 03:28:00,29.3,19.0,29.52,South,180,5.4,6.7,65,0.00,,,0.00,WUHU216HW,2013-11-15 10:28:00,
2013-11-15 03:29:00,29.3,19.4,29.52,East,90,3.6,5.4,66,0.00,,,0.00,WUHU216HW,2013-11-15 10:29:00,
2013-11-15 03:30:00,29.3,19.4,29.52,East,90,0.9,5.4,66,0.00,,,0.00,WUHU216HW,2013-11-15 10:30:00,
2013-11-15 03:32:00,29.2,19.2,29.52,East,90,2.2,5.4,66,0.00,,,0.00,WUHU216HW,2013-11-15 10:32:00,
2013-11-15 03:33:00,29.2,19.2,29.52,East,90,2.9,5.4,66,0.00,,,0.00,WUHU216HW,2013-11-15 10:33:00,
2013-11-15 03:34:00,29.2,19.2,29.52,East,90,2.5,5.4,66,0.00,,,0.00,WUHU216HW,2013-11-15 10:34:00,
2013-11-15 03:35:00,29.0,19.0,29.52,WNW,293,0.7,5.4,66,0.00,,,0.00,WUHU216HW,2013-11-15 10:35:00,
2013-11-15 03:38:00,28.6,18.7,29.52,South,180,1.1,5.4,66,0.00,,,0.00,WUHU216HW,2013-11-15 10:38:00,
2013-11-15 03:39:00,28.6,18.7,29.52,SE,135,0.4,4.7,66,0.00,,,0.00,WUHU216HW,2013-11-15 10:39:00,
2013-11-15 03:40:00,28.4,18.5,29.51,East,90,6.7,6.7,66,0.00,,,0.00,WUHU216HW,2013-11-15 10:40:00,
2013-11-15 03:43:00,28.4,19.6,29.51,ESE,113,9.2,10.1,69,0.00,,,0.00,WUHU216HW,2013-11-15 10:43:00,
2013-11-15 03:44:00,28.4,20.0,29.51,ESE,113,9.6,10.1,70,0.00,,,0.00,WUHU216HW,2013-11-15 10:44:00,
2013-11-15 03:45:00,28.4,20.0,29.51,ESE,113,7.2,10.1,70,0.00,,,0.00,WUHU216HW,2013-11-15 10:45:00,
2013-11-15 03:46:00,28.4,19.6,29.51,East,90,4.7,10.1,69,0.00,,,0.00,WUHU216HW,2013-11-15 10:46:00,
2013-11-15 03:48:00,28.4,19.3,29.52,SW,225,5.4,10.1,68,0.00,,,0.00,WUHU216HW,2013-11-15 10:48:00,
2013-11-15 03:49:00,28.6,18.7,29.51,NE,45,5.4,10.1,66,0.00,,,0.00,WUHU216HW,2013-11-15 10:49:00,
2013-11-15 03:50:00,29.7,19.7,29.50,NE,45,7.8,12.5,66,0.00,,,0.00,WUHU216HW,2013-11-15 10:50:00,
2013-11-15 03:51:00,30.4,20.3,29.51,SSW,203,10.5,15.2,66,0.00,,,0.00,WUHU216HW,2013-11-15 10:51:00,
2013-11-15 03:53:00,30.8,20.7,29.51,SSE,158,5.4,15.2,66,0.00,,,0.00,WUHU216HW,2013-11-15 10:53:00,
2013-11-15 03:54:00,30.8,20.7,29.51,SSW,203,5.8,15.2,66,0.00,,,0.00,WUHU216HW,2013-11-15 10:54:00,
2013-11-15 03:55:00,31.1,20.3,29.51,West,270,3.4,15.2,64,0.00,,,0.00,WUHU216HW,2013-11-15 10:55:00,
2013-11-15 03:56:00,31.3,20.5,29.51,WNW,293,2.7,15.2,64,0.00,,,0.00,WUHU216HW,2013-11-15 10:56:00,
2013-11-15 03:58:00,32.0,20.9,29.51,NNW,338,0.9,15.2,63,0.00,,,0.00,WUHU216HW,2013-11-15 10:58:00,
2013-11-15 03:59:00,32.0,20.5,29.51,ESE,113,0.9,15.2,62,0.00,,,0.00,WUHU216HW,2013-11-15 10:59:00,
2013-11-15 04:00:00,32.2,20.7,29.51,SE,135,0.2,15.2,62,0.00,,,0.00,WUHU216HW,2013-11-15 11:00:00,
2013-11-15 04:01:00,32.2,20.7,29.51,SSW,203,1.8,9.8,62,0.00,,,0.00,WUHU216HW,2013-11-15 11:01:00,
2013-11-15 04:02:00,32.2,20.7,29.51,South,180,3.1,9.8,62,0.00,,,0.00,WUHU216HW,2013-11-15 11:02:00,
2013-11-15 04:03:00,32.2,20.7,29.51,SSE,158,2.7,6.9,62,0.00,,,0.00,WUHU216HW,2013-11-15 11:03:00,
2013-11-15 04:04:00,32.2,20.7,29.51,SSE,158,2.9,4.3,62,0.00,,,0.00,WUHU216HW,2013-11-15 11:04:00,
2013-11-15 04:05:00,32.2,20.7,29.51,SSW,203,4.9,5.4,62,0.00,,,0.00,WUHU216HW,2013-11-15 11:05:00,
2013-11-15 04:06:00,32.0,20.5,29.51,SSW,203,4.9,5.8,62,0.00,,,0.00,WUHU216HW,2013-11-15 11:06:00,
2013-11-15 04:07:00,32.0,20.9,29.51,SE,135,3.4,5.8,63,0.00,,,0.00,WUHU216HW,2013-11-15 11:07:00,
2013-11-15 04:08:00,31.9,20.7,29.51,ESE,113,4.5,5.8,63,0.00,,,0.00,WUHU216HW,2013-11-15 11:08:00,
2013-11-15 04:09:00,31.7,20.5,29.50,SSW,203,0.7,5.8,63,0.00,,,0.00,WUHU216HW,2013-11-15 11:09:00,
2013-11-15 04:10:00,31.7,20.5,29.50,SSW,203,0.9,5.8,63,0.00,,,0.00,WUHU216HW,2013-11-15 11:10:00,
2013-11-15 04:11:00,31.7,20.5,29.51,South,180,0.4,5.8,63,0.00,,,0.00,WUHU216HW,2013-11-15 11:11:00,
2013-11-15 04:12:00,31.7,20.5,29.50,SE,135,5.1,5.8,63,0.00,,,0.00,WUHU216HW,2013-11-15 11:12:00,
2013-11-15 04:14:00,31.5,20.3,29.50,SSE,158,4.5,5.8,63,0.00,,,0.00,WUHU216HW,2013-11-15 11:14:00,
2013-11-15 04:15:00,31.5,20.3,29.50,SE,135,2.9,5.4,63,0.00,,,0.00,WUHU216HW,2013-11-15 11:15:00,
2013-11-15 04:16:00,31.7,20.5,29.50,SE,135,4.0,5.4,63,0.00,,,0.00,WUHU216HW,2013-11-15 11:16:00,
2013-11-15 04:18:00,31.5,20.3,29.50,SSE,158,2.7,5.4,63,0.00,,,0.00,WUHU216HW,2013-11-15 11:18:00,
2013-11-15 04:19:00,31.5,20.3,29.50,SE,135,2.5,5.4,63,0.00,,,0.00,WUHU216HW,2013-11-15 11:19:00,
2013-11-15 04:21:00,31.5,20.3,29.50,WSW,248,5.4,5.4,63,0.00,,,0.00,WUHU216HW,2013-11-15 11:21:00,
2013-11-15 04:22:00,31.5,20.3,29.51,WSW,248,6.9,6.9,63,0.00,,,0.00,WUHU216HW,2013-11-15 11:22:00,
2013-11-15 04:24:00,31.7,20.2,29.50,SE,135,1.8,6.9,62,0.00,,,0.00,WUHU216HW,2013-11-15 11:24:00,
2013-11-15 04:26:00,31.9,20.3,29.50,SSE,158,2.0,6.9,62,0.00,,,0.00,WUHU216HW,2013-11-15 11:26:00,
2013-11-15 04:27:00,31.9,20.3,29.50,SSE,158,4.0,6.9,62,0.00,,,0.00,WUHU216HW,2013-11-15 11:27:00,
2013-11-15 04:29:00,31.9,20.7,29.50,SSE,158,5.4,6.9,63,0.00,,,0.00,WUHU216HW,2013-11-15 11:29:00,
2013-11-15 04:31:00,31.9,20.7,29.50,SE,135,5.4,6.9,63,0.00,,,0.00,WUHU216HW,2013-11-15 11:31:00,
2013-11-15 04:32:00,31.9,20.7,29.50,SE,135,5.1,5.8,63,0.00,,,0.00,WUHU216HW,2013-11-15 11:32:00,
2013-11-15 04:34:00,31.7,20.5,29.50,SSE,158,2.2,5.8,63,0.00,,,0.00,WUHU216HW,2013-11-15 11:34:00,
2013-11-15 04:36:00,31.7,20.5,29.50,ESE,113,4.3,5.8,63,0.00,,,0.00,WUHU216HW,2013-11-15 11:36:00,
2013-11-15 04:37:00,31.7,20.5,29.50,ESE,113,6.0,6.0,63,0.00,,,0.00,WUHU216HW,2013-11-15 11:37:00,
2013-11-15 04:39:00,31.5,20.7,29.50,ENE,68,5.8,7.6,64,0.00,,,0.00,WUHU216HW,2013-11-15 11:39:00,
2013-11-15 04:40:00,31.5,20.7,29.50,East,90,7.8,7.8,64,0.00,,,0.00,WUHU216HW,2013-11-15 11:40:00,
2013-11-15 04:41:00,31.5,20.7,29.50,East,90,6.5,7.8,64,0.00,,,0.00,WUHU216HW,2013-11-15 11:41:00,
2013-11-15 04:42:00,31.3,20.5,29.50,East,90,4.9,7.8,64,0.00,,,0.00,WUHU216HW,2013-11-15 11:42:00,
2013-11-15 04:45:00,31.3,20.5,29.50,SSE,158,0.7,7.8,64,0.00,,,0.00,WUHU216HW,2013-11-15 11:45:00,
2013-11-15 04:46:00,31.3,20.5,29.50,SSE,158,5.4,7.8,64,0.00,,,0.00,WUHU216HW,2013-11-15 11:46:00,
2013-11-15 04:47:00,31.3,20.5,29.50,SE,135,4.9,7.8,64,0.00,,,0.00,WUHU216HW,2013-11-15 11:47:00,
2013-11-15 04:50:00,31.3,20.5,29.50,ENE,68,4.9,7.8,64,0.00,,,0.00,WUHU216HW,2013-11-15 11:50:00,
2013-11-15 04:51:00,31.1,20.7,29.50,East,90,4.7,6.9,65,0.00,,,0.00,WUHU216HW,2013-11-15 11:51:00,
2013-11-15 04:52:00,31.1,20.7,29.50,East,90,5.6,6.9,65,0.00,,,0.00,WUHU216HW,2013-11-15 11:52:00,
2013-11-15 04:53:00,31.1,20.7,29.50,East,90,3.8,6.9,65,0.00,,,0.00,WUHU216HW,2013-11-15 11:53:00,
2013-11-15 04:55:00,31.0,20.5,29.50,ESE,113,3.4,6.9,65,0.00,,,0.00,WUHU216HW,2013-11-15 11:55:00,
2013-11-15 04:57:00,31.0,20.9,29.50,ENE,68,3.6,6.9,66,0.00,,,0.00,WUHU216HW,2013-11-15 11:57:00,
2013-11-15 04:58:00,31.0,20.9,29.50,NE,45,0.9,6.9,66,0.00,,,0.00,WUHU216HW,2013-11-15 11:58:00,
2013-11-15 05:01:00,31.0,21.2,29.50,SE,135,8.7,8.7,67,0.00,,,0.00,WUHU216HW,2013-11-15 12:01:00,
2013-11-15 05:02:00,30.8,21.4,29.50,ESE,113,6.9,8.7,68,0.00,,,0.00,WUHU216HW,2013-11-15 12:02:00,
2013-11-15 05:03:00,30.6,20.9,29.50,SSE,158,5.4,8.7,67,0.00,,,0.00,WUHU216HW,2013-11-15 12:03:00,
2013-11-15 05:04:00,30.6,20.9,29.50,SSE,158,5.4,8.7,67,0.00,,,0.00,WUHU216HW,2013-11-15 12:04:00,
2013-11-15 05:06:00,30.6,20.9,29.50,SSE,158,3.8,8.7,67,0.00,,,0.00,WUHU216HW,2013-11-15 12:06:00,
2013-11-15 05:07:00,30.4,20.7,29.50,SSE,158,3.1,8.7,67,0.00,,,0.00,WUHU216HW,2013-11-15 12:07:00,
2013-11-15 05:08:00,30.4,20.7,29.50,SE,135,1.8,8.7,67,0.00,,,0.00,WUHU216HW,2013-11-15 12:08:00,
2013-11-15 05:09:00,30.4,20.7,29.50,ESE,113,1.1,8.7,67,0.00,,,0.00,WUHU216HW,2013-11-15 12:09:00,
2013-11-15 05:11:00,30.2,20.5,29.50,ESE,113,4.7,7.8,67,0.00,,,0.00,WUHU216HW,2013-11-15 12:11:00,
2013-11-15 05:12:00,30.2,20.9,29.50,ESE,113,5.4,6.3,68,0.00,,,0.00,WUHU216HW,2013-11-15 12:12:00,
2013-11-15 05:14:00,30.1,20.7,29.50,SE,135,5.6,6.3,68,0.00,,,0.00,WUHU216HW,2013-11-15 12:14:00,
2013-11-15 05:16:00,29.9,20.5,29.50,SSE,158,5.4,5.8,68,0.00,,,0.00,WUHU216HW,2013-11-15 12:16:00,
2013-11-15 05:17:00,29.9,20.5,29.50,ESE,113,4.7,5.8,68,0.00,,,0.00,WUHU216HW,2013-11-15 12:17:00,
2013-11-15 05:19:00,29.9,21.2,29.50,ESE,113,6.9,7.6,70,0.00,,,0.00,WUHU216HW,2013-11-15 12:19:00,
2013-11-15 05:21:00,29.9,21.2,29.51,SSE,158,2.7,7.6,70,0.00,,,0.00,WUHU216HW,2013-11-15 12:21:00,
2013-11-15 05:22:00,29.9,21.2,29.51,South,180,3.6,7.6,70,0.00,,,0.00,WUHU216HW,2013-11-15 12:22:00,
2013-11-15 05:23:00,29.9,20.9,29.50,SSE,158,3.4,7.6,69,0.00,,,0.00,WUHU216HW,2013-11-15 12:23:00,
2013-11-15 05:24:00,29.9,20.9,29.50,SSE,158,3.4,7.6,69,0.00,,,0.00,WUHU216HW,2013-11-15 12:24:00,
2013-11-15 05:26:00,29.9,20.9,29.51,SSE,158,2.5,7.6,69,0.00,,,0.00,WUHU216HW,2013-11-15 12:26:00,
2013-11-15 05:27:00,29.9,20.9,29.50,SSE,158,3.4,7.6,69,0.00,,,0.00,WUHU216HW,2013-11-15 12:27:00,
2013-11-15 05:28:00,29.9,20.9,29.50,South,180,1.8,7.6,69,0.00,,,0.00,WUHU216HW,2013-11-15 12:28:00,
2013-11-15 05:29:00,29.9,20.9,29.50,South,180,2.0,5.6,69,0.00,,,0.00,WUHU216HW,2013-11-15 12:29:00,
2013-11-15 05:30:00,29.9,20.9,29.50,South,180,2.0,5.6,69,0.00,,,0.00,WUHU216HW,2013-11-15 12:30:00,
2013-11-15 05:31:00,29.9,20.9,29.50,SE,135,2.5,4.0,69,0.00,,,0.00,WUHU216HW,2013-11-15 12:31:00,
2013-11-15 05:32:00,29.9,20.9,29.50,ESE,113,2.0,4.0,69,0.00,,,0.00,WUHU216HW,2013-11-15 12:32:00,
2013-11-15 05:33:00,29.9,20.9,29.50,East,90,2.5,4.0,69,0.00,,,0.00,WUHU216HW,2013-11-15 12:33:00,
2013-11-15 05:34:00,29.9,20.9,29.50,East,90,2.2,3.6,69,0.00,,,0.00,WUHU216HW,2013-11-15 12:34:00,
2013-11-15 05:35:00,29.9,20.9,29.50,ESE,113,2.2,3.6,69,0.00,,,0.00,WUHU216HW,2013-11-15 12:35:00,
2013-11-15 05:36:00,29.9,20.9,29.50,SSE,158,1.8,3.6,69,0.00,,,0.00,WUHU216HW,2013-11-15 12:36:00,
2013-11-15 05:37:00,29.9,20.9,29.50,SSE,158,1.8,3.4,69,0.00,,,0.00,WUHU216HW,2013-11-15 12:37:00,
2013-11-15 05:38:00,29.9,20.9,29.50,SSE,158,1.8,3.4,69,0.00,,,0.00,WUHU216HW,2013-11-15 12:38:00,
2013-11-15 05:40:00,30.1,21.1,29.50,SE,135,2.5,3.6,69,0.00,,,0.00,WUHU216HW,2013-11-15 12:40:00,
2013-11-15 05:42:00,30.1,21.1,29.50,SE,135,2.9,3.8,69,0.00,,,0.00,WUHU216HW,2013-11-15 12:42:00,
2013-11-15 05:43:00,30.1,21.1,29.50,SSE,158,2.5,3.8,69,0.00,,,0.00,WUHU216HW,2013-11-15 12:43:00,
2013-11-15 05:45:00,30.1,21.1,29.50,SE,135,2.2,3.8,69,0.00,,,0.00,WUHU216HW,2013-11-15 12:45:00,
2013-11-15 05:47:00,30.1,21.1,29.49,SSE,158,1.1,3.8,69,0.00,,,0.00,WUHU216HW,2013-11-15 12:47:00,
2013-11-15 05:48:00,30.2,21.2,29.49,SSW,203,1.1,3.8,69,0.00,,,0.00,WUHU216HW,2013-11-15 12:48:00,
2013-11-15 05:50:00,30.2,20.9,29.50,SSE,158,1.6,3.8,68,0.00,,,0.00,WUHU216HW,2013-11-15 12:50:00,
2013-11-15 05:51:00,30.2,21.2,29.50,SSE,158,1.6,3.6,69,0.00,,,0.00,WUHU216HW,2013-11-15 12:51:00,
2013-11-15 05:52:00,30.2,21.2,29.50,SSW,203,5.4,5.6,69,0.00,,,0.00,WUHU216HW,2013-11-15 12:52:00,
2013-11-15 05:53:00,30.2,21.2,29.50,South,180,3.1,5.6,69,0.00,,,0.00,WUHU216HW,2013-11-15 12:53:00,
2013-11-15 05:54:00,30.2,21.2,29.50,SSW,203,3.4,5.6,69,0.00,,,0.00,WUHU216HW,2013-11-15 12:54:00,
2013-11-15 05:55:00,30.2,21.2,29.50,SSE,158,1.6,5.6,69,0.00,,,0.00,WUHU216HW,2013-11-15 12:55:00,
2013-11-15 05:56:00,30.4,21.4,29.50,SSW,203,1.6,5.6,69,0.00,,,0.00,WUHU216HW,2013-11-15 12:56:00,
2013-11-15 05:57:00,30.4,21.1,29.50,SE,135,2.5,5.6,68,0.00,,,0.00,WUHU216HW,2013-11-15 12:57:00,
2013-11-15 05:58:00,30.4,21.1,29.49,SE,135,3.4,5.6,68,0.00,,,0.00,WUHU216HW,2013-11-15 12:58:00,
2013-11-15 05:59:00,30.4,21.1,29.49,SSE,158,2.5,5.6,68,0.00,,,0.00,WUHU216HW,2013-11-15 12:59:00,
2013-11-15 06:01:00,30.4,21.1,29.49,SSE,158,2.5,5.6,68,0.00,,,0.00,WUHU216HW,2013-11-15 13:01:00,
2013-11-15 06:02:00,30.4,21.1,29.49,SE,135,5.1,5.6,68,0.00,,,0.00,WUHU216HW,2013-11-15 13:02:00,
2013-11-15 06:03:00,30.4,21.1,29.49,NNE,23,6.9,9.8,68,0.00,,,0.00,WUHU216HW,2013-11-15 13:03:00,
2013-11-15 06:05:00,30.6,21.2,29.49,WNW,293,0.9,9.8,68,0.00,,,0.00,WUHU216HW,2013-11-15 13:05:00,
2013-11-15 06:06:00,30.6,21.2,29.49,NNE,23,1.3,9.8,68,0.00,,,0.00,WUHU216HW,2013-11-15 13:06:00,
2013-11-15 06:07:00,30.6,21.2,29.49,WSW,248,1.1,9.8,68,0.00,,,0.00,WUHU216HW,2013-11-15 13:07:00,
2013-11-15 06:09:00,30.6,20.5,29.49,North,0,7.8,9.8,66,0.00,,,0.00,WUHU216HW,2013-11-15 13:09:00,
2013-11-15 06:11:00,31.0,20.2,29.49,NW,315,6.3,9.8,64,0.00,,,0.00,WUHU216HW,2013-11-15 13:11:00,
2013-11-15 06:12:00,32.0,20.5,29.49,WSW,248,9.2,11.0,62,0.00,,,0.00,WUHU216HW,2013-11-15 13:12:00,
2013-11-15 06:13:00,32.0,20.5,29.49,WSW,248,9.2,11.0,62,0.00,,,0.00,WUHU216HW,2013-11-15 13:13:00,
2013-11-15 06:14:00,32.8,21.2,29.49,WSW,248,6.5,11.0,62,0.00,,,0.00,WUHU216HW,2013-11-15 13:14:00,
2013-11-15 06:16:00,32.9,21.7,29.49,WSW,248,2.5,11.0,63,0.00,,,0.00,WUHU216HW,2013-11-15 13:16:00,
2013-11-15 06:17:00,32.8,21.5,29.49,SSE,158,1.6,11.0,63,0.00,,,0.00,WUHU216HW,2013-11-15 13:17:00,
2013-11-15 06:18:00,32.8,21.5,29.49,ESE,113,3.6,11.0,63,0.00,,,0.00,WUHU216HW,2013-11-15 13:18:00,
2013-11-15 06:19:00,32.8,21.5,29.49,SE,135,5.1,11.0,63,0.00,,,0.00,WUHU216HW,2013-11-15 13:19:00,
2013-11-15 06:21:00,32.6,21.3,29.49,ESE,113,0.9,11.0,63,0.00,,,0.00,WUHU216HW,2013-11-15 13:21:00,
2013-11-15 06:23:00,32.4,21.3,29.49,SE,135,0.4,9.2,63,0.00,,,0.00,WUHU216HW,2013-11-15 13:23:00,
2013-11-15 06:24:00,32.4,21.3,29.49,SE,135,0.7,5.8,63,0.00,,,0.00,WUHU216HW,2013-11-15 13:24:00,
2013-11-15 06:25:00,32.4,21.3,29.49,ESE,113,1.1,5.8,63,0.00,,,0.00,WUHU216HW,2013-11-15 13:25:00,
2013-11-15 06:26:00,32.2,21.4,29.49,SE,135,0.7,5.8,64,0.00,,,0.00,WUHU216HW,2013-11-15 13:26:00,
2013-11-15 06:28:00,32.2,21.4,29.49,SSE,158,1.1,5.8,64,0.00,,,0.00,WUHU216HW,2013-11-15 13:28:00,
2013-11-15 06:29:00,32.2,21.4,29.49,SSE,158,2.2,2.2,64,0.00,,,0.00,WUHU216HW,2013-11-15 13:29:00,
2013-11-15 06:30:00,32.2,21.4,29.49,SSE,158,2.0,2.2,64,0.00,,,0.00,WUHU216HW,2013-11-15 13:30:00,
2013-11-15 06:31:00,32.2,21.4,29.49,ENE,68,3.4,3.4,64,0.00,,,0.00,WUHU216HW,2013-11-15 13:31:00,
2013-11-15 06:33:00,32.0,21.2,29.49,SSW,203,1.8,3.4,64,0.00,,,0.00,WUHU216HW,2013-11-15 13:33:00,
2013-11-15 06:34:00,32.0,21.2,29.49,West,270,4.9,5.8,64,0.00,,,0.00,WUHU216HW,2013-11-15 13:34:00,
2013-11-15 06:35:00,32.0,21.2,29.49,SW,225,3.4,5.8,64,0.00,,,0.00,WUHU216HW,2013-11-15 13:35:00,
2013-11-15 06:36:00,32.0,21.2,29.49,SE,135,1.1,5.8,64,0.00,,,0.00,WUHU216HW,2013-11-15 13:36:00,
2013-11-15 06:38:00,32.0,21.2,29.49,SW,225,1.3,5.8,64,0.00,,,0.00,WUHU216HW,2013-11-15 13:38:00,
2013-11-15 06:39:00,32.0,21.2,29.49,SSE,158,1.8,5.8,64,0.00,,,0.00,WUHU216HW,2013-11-15 13:39:00,
2013-11-15 06:40:00,32.0,21.2,29.49,SSE,158,1.8,5.8,64,0.00,,,0.00,WUHU216HW,2013-11-15 13:40:00,
2013-11-15 06:41:00,32.0,21.2,29.49,SE,135,0.4,5.8,64,0.00,,,0.00,WUHU216HW,2013-11-15 13:41:00,
2013-11-15 06:43:00,32.0,21.6,29.49,ESE,113,2.9,5.8,65,0.00,,,0.00,WUHU216HW,2013-11-15 13:43:00,
2013-11-15 06:45:00,32.0,21.2,29.49,NNE,23,1.8,4.5,64,0.00,,,0.00,WUHU216HW,2013-11-15 13:45:00,
2013-11-15 06:46:00,32.0,21.2,29.49,ESE,113,1.1,4.5,64,0.00,,,0.00,WUHU216HW,2013-11-15 13:46:00,
2013-11-15 06:48:00,32.0,21.2,29.49,NW,315,3.4,4.5,64,0.00,,,0.00,WUHU216HW,2013-11-15 13:48:00,
2013-11-15 06:49:00,32.0,20.9,29.49,SW,225,5.1,5.1,63,0.00,,,0.00,WUHU216HW,2013-11-15 13:49:00,
2013-11-15 06:50:00,32.0,21.2,29.49,South,180,4.5,5.1,64,0.00,,,0.00,WUHU216HW,2013-11-15 13:50:00,
2013-11-15 06:51:00,32.2,21.1,29.49,NW,315,0.2,5.1,63,0.00,,,0.00,WUHU216HW,2013-11-15 13:51:00,
2013-11-15 06:53:00,32.6,21.0,29.49,NNW,338,2.0,5.1,62,0.00,,,0.00,WUHU216HW,2013-11-15 13:53:00,
2013-11-15 06:54:00,32.8,21.2,29.49,WNW,293,0.2,5.1,62,0.00,,,0.00,WUHU216HW,2013-11-15 13:54:00,
2013-11-15 06:55:00,32.8,21.2,29.49,WNW,293,0.2,5.1,62,0.00,,,0.00,WUHU216HW,2013-11-15 13:55:00,
2013-11-15 06:56:00,32.9,21.3,29.50,SW,225,8.9,12.8,62,0.00,,,0.00,WUHU216HW,2013-11-15 13:56:00,
2013-11-15 06:58:00,33.5,21.1,29.50,NW,315,6.3,16.1,60,0.00,,,0.00,WUHU216HW,2013-11-15 13:58:00,
2013-11-15 06:59:00,33.8,20.5,29.50,West,270,7.4,16.1,58,0.00,,,0.00,WUHU216HW,2013-11-15 13:59:00,
2013-11-15 07:00:00,34.0,20.7,29.49,NW,315,4.0,16.1,58,0.00,,,0.00,WUHU216HW,2013-11-15 14:00:00,
2013-11-15 07:01:00,34.2,20.1,29.49,NW,315,6.3,16.1,56,0.00,,,0.00,WUHU216HW,2013-11-15 14:01:00,
2013-11-15 07:02:00,34.2,20.1,29.49,West,270,4.7,16.1,56,0.00,,,0.00,WUHU216HW,2013-11-15 14:02:00,
2013-11-15 07:04:00,34.7,20.2,29.49,West,270,12.1,16.1,55,0.00,,,0.00,WUHU216HW,2013-11-15 14:04:00,
2013-11-15 07:05:00,34.9,19.9,29.49,WSW,248,15.0,16.1,54,0.00,,,0.00,WUHU216HW,2013-11-15 14:05:00,
2013-11-15 07:06:00,35.3,20.3,29.49,West,270,15.4,17.2,54,0.00,,,0.00,WUHU216HW,2013-11-15 14:06:00,
2013-11-15 07:07:00,35.5,20.0,29.49,WNW,293,14.3,17.2,53,0.00,,,0.00,WUHU216HW,2013-11-15 14:07:00,
2013-11-15 07:09:00,35.6,20.6,29.49,WSW,248,11.4,17.2,54,0.00,,,0.00,WUHU216HW,2013-11-15 14:09:00,
2013-11-15 07:10:00,35.6,19.8,29.50,WSW,248,16.1,17.2,52,0.00,,,0.00,WUHU216HW,2013-11-15 14:10:00,
2013-11-15 07:11:00,35.6,19.8,29.50,WSW,248,9.8,17.2,52,0.00,,,0.00,WUHU216HW,2013-11-15 14:11:00,
2013-11-15 07:12:00,35.6,19.8,29.49,WSW,248,6.3,17.2,52,0.00,,,0.00,WUHU216HW,2013-11-15 14:12:00,
2013-11-15 07:14:00,35.6,20.2,29.49,SW,225,9.4,17.2,53,0.00,,,0.00,WUHU216HW,2013-11-15 14:14:00,
2013-11-15 07:15:00,35.5,20.0,29.49,SW,225,9.4,17.2,53,0.00,,,0.00,WUHU216HW,2013-11-15 14:15:00,
2013-11-15 07:16:00,35.5,20.0,29.49,WSW,248,9.2,16.1,53,0.00,,,0.00,WUHU216HW,2013-11-15 14:16:00,
2013-11-15 07:17:00,35.5,20.0,29.49,SW,225,8.3,16.1,53,0.00,,,0.00,WUHU216HW,2013-11-15 14:17:00,
2013-11-15 07:19:00,35.3,19.8,29.49,WNW,293,6.3,16.1,53,0.00,,,0.00,WUHU216HW,2013-11-15 14:19:00,
2013-11-15 07:20:00,35.3,19.8,29.49,SW,225,3.6,12.5,53,0.00,,,0.00,WUHU216HW,2013-11-15 14:20:00,
2013-11-15 07:21:00,35.3,20.3,29.49,SW,225,4.7,10.7,54,0.00,,,0.00,WUHU216HW,2013-11-15 14:21:00,
2013-11-15 07:22:00,35.1,19.6,29.49,WSW,248,11.0,11.0,53,0.00,,,0.00,WUHU216HW,2013-11-15 14:22:00,
2013-11-15 07:25:00,35.3,19.5,29.49,West,270,12.5,12.8,52,0.00,,,0.00,WUHU216HW,2013-11-15 14:25:00,
2013-11-15 07:26:00,35.5,19.2,29.49,West,270,8.3,12.8,51,0.00,,,0.00,WUHU216HW,2013-11-15 14:26:00,
2013-11-15 07:27:00,35.5,19.2,29.49,West,270,11.0,12.8,51,0.00,,,0.00,WUHU216HW,2013-11-15 14:27:00,
2013-11-15 07:30:00,35.6,19.4,29.49,West,270,8.5,16.8,51,0.00,,,0.00,WUHU216HW,2013-11-15 14:30:00,
2013-11-15 07:31:00,35.6,18.9,29.49,West,270,13.9,21.5,50,0.00,,,0.00,WUHU216HW,2013-11-15 14:31:00,
2013-11-15 07:32:00,35.6,19.4,29.49,WSW,248,8.7,21.5,51,0.00,,,0.00,WUHU216HW,2013-11-15 14:32:00,
2013-11-15 07:35:00,35.6,18.9,29.49,WSW,248,7.6,21.5,50,0.00,,,0.00,WUHU216HW,2013-11-15 14:35:00,
2013-11-15 07:37:00,35.6,19.4,29.49,West,270,5.4,21.5,51,0.00,,,0.00,WUHU216HW,2013-11-15 14:37:00,
2013-11-15 07:40:00,35.6,18.9,29.49,WSW,248,8.7,21.5,50,0.00,,,0.00,WUHU216HW,2013-11-15 14:40:00,
2013-11-15 07:42:00,35.6,19.4,29.49,WSW,248,4.0,13.4,51,0.00,,,0.00,WUHU216HW,2013-11-15 14:42:00,
2013-11-15 07:43:00,35.6,19.4,29.49,SW,225,8.3,13.4,51,0.00,,,0.00,WUHU216HW,2013-11-15 14:43:00,
2013-11-15 07:45:00,35.5,18.7,29.49,WSW,248,6.9,13.4,50,0.00,,,0.00,WUHU216HW,2013-11-15 14:45:00,
2013-11-15 07:46:00,35.5,18.7,29.49,NW,315,5.1,13.4,50,0.00,,,0.00,WUHU216HW,2013-11-15 14:46:00,
2013-11-15 07:47:00,35.5,18.7,29.49,West,270,6.5,13.4,50,0.00,,,0.00,WUHU216HW,2013-11-15 14:47:00,
2013-11-15 07:48:00,35.5,19.2,29.49,SSW,203,5.6,13.4,51,0.00,,,0.00,WUHU216HW,2013-11-15 14:48:00,
2013-11-15 07:51:00,35.3,19.0,29.49,SW,225,4.0,13.4,51,0.00,,,0.00,WUHU216HW,2013-11-15 14:51:00,
2013-11-15 07:53:00,35.3,19.0,29.49,NW,315,3.4,11.9,51,0.00,,,0.00,WUHU216HW,2013-11-15 14:53:00,
2013-11-15 07:54:00,35.1,18.4,29.49,West,270,8.7,11.9,50,0.00,,,0.00,WUHU216HW,2013-11-15 14:54:00,
2013-11-15 07:56:00,35.3,18.5,29.49,WNW,293,11.0,15.7,50,0.00,,,0.00,WUHU216HW,2013-11-15 14:56:00,
2013-11-15 07:57:00,35.3,18.5,29.49,West,270,9.6,15.7,50,0.00,,,0.00,WUHU216HW,2013-11-15 14:57:00,
2013-11-15 07:58:00,35.5,18.2,29.49,WSW,248,2.9,15.7,49,0.00,,,0.00,WUHU216HW,2013-11-15 14:58:00,
2013-11-15 08:01:00,35.6,19.4,29.49,SSW,203,2.0,15.7,51,0.00,,,0.00,WUHU216HW,2013-11-15 15:01:00,
2013-11-15 08:02:00,35.6,18.9,29.49,NNE,23,1.3,15.7,50,0.00,,,0.00,WUHU216HW,2013-11-15 15:02:00,
2013-11-15 08:03:00,35.6,18.9,29.49,NNE,23,2.5,15.7,50,0.00,,,0.00,WUHU216HW,2013-11-15 15:03:00,
2013-11-15 08:04:00,35.5,18.7,29.49,NW,315,3.4,15.7,50,0.00,,,0.00,WUHU216HW,2013-11-15 15:04:00,
2013-11-15 08:06:00,35.5,18.7,29.49,WSW,248,6.7,11.0,50,0.00,,,0.00,WUHU216HW,2013-11-15 15:06:00,
2013-11-15 08:07:00,35.5,18.7,29.49,SW,225,5.1,9.6,50,0.00,,,0.00,WUHU216HW,2013-11-15 15:07:00,
2013-11-15 08:08:00,35.3,18.5,29.49,SW,225,3.4,6.9,50,0.00,,,0.00,WUHU216HW,2013-11-15 15:08:00,
2013-11-15 08:09:00,35.3,19.0,29.49,SSE,158,5.8,6.9,51,0.00,,,0.00,WUHU216HW,2013-11-15 15:09:00,
2013-11-15 08:11:00,35.3,19.0,29.49,South,180,4.3,6.9,51,0.00,,,0.00,WUHU216HW,2013-11-15 15:11:00,
2013-11-15 08:12:00,35.1,18.8,29.49,South,180,4.3,6.9,51,0.00,,,0.00,WUHU216HW,2013-11-15 15:12:00,
2013-11-15 08:13:00,35.1,18.8,29.49,WSW,248,12.5,12.5,51,0.00,,,0.00,WUHU216HW,2013-11-15 15:13:00,
2013-11-15 08:14:00,35.1,18.4,29.49,NNW,338,4.9,12.5,50,0.00,,,0.00,WUHU216HW,2013-11-15 15:14:00,
2013-11-15 08:17:00,35.3,18.5,29.49,WSW,248,1.8,12.5,50,0.00,,,0.00,WUHU216HW,2013-11-15 15:17:00,
2013-11-15 08:18:00,35.3,18.5,29.49,West,270,2.2,12.5,50,0.00,,,0.00,WUHU216HW,2013-11-15 15:18:00,
2013-11-15 08:19:00,35.3,18.5,29.49,West,270,5.8,12.5,50,0.00,,,0.00,WUHU216HW,2013-11-15 15:19:00,
2013-11-15 08:22:00,35.5,18.2,29.49,West,270,6.7,12.5,49,0.00,,,0.00,WUHU216HW,2013-11-15 15:22:00,
2013-11-15 08:23:00,35.5,18.7,29.49,WNW,293,4.9,11.0,50,0.00,,,0.00,WUHU216HW,2013-11-15 15:23:00,
2013-11-15 08:24:00,35.5,18.7,29.49,NNW,338,4.7,8.5,50,0.00,,,0.00,WUHU216HW,2013-11-15 15:24:00,
2013-11-15 08:27:00,35.5,18.2,29.49,NNW,338,1.6,8.5,49,0.00,,,0.00,WUHU216HW,2013-11-15 15:27:00,
2013-11-15 08:28:00,35.5,18.7,29.49,SW,225,5.1,8.5,50,0.00,,,0.00,WUHU216HW,2013-11-15 15:28:00,
2013-11-15 08:29:00,35.5,18.7,29.49,WSW,248,4.0,8.5,50,0.00,,,0.00,WUHU216HW,2013-11-15 15:29:00,
2013-11-15 08:30:00,35.5,18.7,29.48,WSW,248,3.1,8.5,50,0.00,,,0.00,WUHU216HW,2013-11-15 15:30:00,
2013-11-15 08:32:00,35.6,18.4,29.49,West,270,7.4,9.2,49,0.00,,,0.00,WUHU216HW,2013-11-15 15:32:00,
2013-11-15 08:33:00,35.6,18.4,29.49,WSW,248,6.0,9.2,49,0.00,,,0.00,WUHU216HW,2013-11-15 15:33:00,
2013-11-15 08:34:00,35.6,18.4,29.49,West,270,9.8,9.8,49,0.00,,,0.00,WUHU216HW,2013-11-15 15:34:00,
2013-11-15 08:35:00,35.6,17.8,29.49,WNW,293,4.9,9.8,48,0.00,,,0.00,WUHU216HW,2013-11-15 15:35:00,
2013-11-15 08:37:00,35.8,18.5,29.48,WNW,293,4.0,9.8,49,0.00,,,0.00,WUHU216HW,2013-11-15 15:37:00,
2013-11-15 08:38:00,35.8,18.5,29.48,West,270,6.3,9.8,49,0.00,,,0.00,WUHU216HW,2013-11-15 15:38:00,
2013-11-15 08:39:00,35.8,18.5,29.48,WSW,248,6.9,9.8,49,0.00,,,0.00,WUHU216HW,2013-11-15 15:39:00,
2013-11-15 08:40:00,35.8,18.0,29.48,WSW,248,10.5,12.3,48,0.00,,,0.00,WUHU216HW,2013-11-15 15:40:00,
2013-11-15 08:42:00,36.0,18.2,29.48,WNW,293,4.9,12.3,48,0.00,,,0.00,WUHU216HW,2013-11-15 15:42:00,
2013-11-15 08:44:00,36.0,18.2,29.48,WNW,293,6.0,12.3,48,0.00,,,0.00,WUHU216HW,2013-11-15 15:44:00,
2013-11-15 08:45:00,36.0,18.2,29.48,SW,225,8.1,12.3,48,0.00,,,0.00,WUHU216HW,2013-11-15 15:45:00,
2013-11-15 08:47:00,36.0,18.2,29.48,SSE,158,17.2,17.2,48,0.00,,,0.00,WUHU216HW,2013-11-15 15:47:00,
2013-11-15 08:49:00,36.2,17.8,29.48,WSW,248,16.6,17.2,47,0.00,,,0.00,WUHU216HW,2013-11-15 15:49:00,
2013-11-15 08:50:00,36.4,18.0,29.48,SSW,203,9.2,17.2,47,0.00,,,0.00,WUHU216HW,2013-11-15 15:50:00,
2013-11-15 08:51:00,36.4,18.6,29.48,SW,225,9.8,17.2,48,0.00,,,0.00,WUHU216HW,2013-11-15 15:51:00,
2013-11-15 08:52:00,36.4,18.6,29.48,SSW,203,8.7,17.2,48,0.00,,,0.00,WUHU216HW,2013-11-15 15:52:00,
2013-11-15 08:54:00,36.4,18.6,29.48,West,270,7.8,17.2,48,0.00,,,0.00,WUHU216HW,2013-11-15 15:54:00,
2013-11-15 08:55:00,36.4,18.0,29.48,WNW,293,3.6,17.2,47,0.00,,,0.00,WUHU216HW,2013-11-15 15:55:00,
2013-11-15 08:56:00,36.4,17.5,29.48,West,270,9.2,17.2,46,0.00,,,0.00,WUHU216HW,2013-11-15 15:56:00,
2013-11-15 08:57:00,36.4,18.0,29.48,NW,315,9.8,16.6,47,0.00,,,0.00,WUHU216HW,2013-11-15 15:57:00,
2013-11-15 08:59:00,36.4,18.0,29.48,WNW,293,3.1,16.6,47,0.00,,,0.00,WUHU216HW,2013-11-15 15:59:00,
2013-11-15 09:00:00,36.4,18.0,29.48,WNW,293,3.1,12.1,47,0.00,,,0.00,WUHU216HW,2013-11-15 16:00:00,
2013-11-15 09:01:00,36.4,18.0,29.48,WSW,248,9.8,12.1,47,0.00,,,0.00,WUHU216HW,2013-11-15 16:01:00,
2013-11-15 09:02:00,36.4,17.5,29.48,West,270,5.4,12.1,46,0.00,,,0.00,WUHU216HW,2013-11-15 16:02:00,
2013-11-15 09:05:00,36.5,18.2,29.48,West,270,7.4,12.1,47,0.00,,,0.00,WUHU216HW,2013-11-15 16:05:00,
2013-11-15 09:06:00,36.5,18.2,29.48,WSW,248,6.3,12.1,47,0.00,,,0.00,WUHU216HW,2013-11-15 16:06:00,
2013-11-15 09:07:00,36.5,18.2,29.48,WNW,293,8.3,12.1,47,0.00,,,0.00,WUHU216HW,2013-11-15 16:07:00,
2013-11-15 09:10:00,36.5,18.2,29.48,SW,225,15.0,17.7,47,0.00,,,0.00,WUHU216HW,2013-11-15 16:10:00,
2013-11-15 09:11:00,36.7,17.8,29.48,SW,225,11.0,17.7,46,0.00,,,0.00,WUHU216HW,2013-11-15 16:11:00,
2013-11-15 09:13:00,36.7,17.8,29.48,WSW,248,11.2,17.7,46,0.00,,,0.00,WUHU216HW,2013-11-15 16:13:00,
2013-11-15 09:16:00,36.7,17.8,29.48,WNW,293,5.8,17.7,46,0.00,,,0.00,WUHU216HW,2013-11-15 16:16:00,
2013-11-15 09:17:00,36.7,18.3,29.48,West,270,6.9,17.7,47,0.00,,,0.00,WUHU216HW,2013-11-15 16:17:00,
2013-11-15 09:18:00,36.9,17.9,29.48,West,270,12.1,17.7,46,0.00,,,0.00,WUHU216HW,2013-11-15 16:18:00,
2013-11-15 09:21:00,36.7,18.3,29.48,WNW,293,11.4,18.6,47,0.00,,,0.00,WUHU216HW,2013-11-15 16:21:00,
2013-11-15 09:22:00,36.9,17.9,29.47,WSW,248,12.5,18.6,46,0.00,,,0.00,WUHU216HW,2013-11-15 16:22:00,
2013-11-15 09:23:00,36.9,17.9,29.48,West,270,10.3,18.6,46,0.00,,,0.00,WUHU216HW,2013-11-15 16:23:00,
2013-11-15 09:26:00,36.9,17.9,29.48,WSW,248,12.8,18.6,46,0.00,,,0.00,WUHU216HW,2013-11-15 16:26:00,
2013-11-15 09:27:00,36.9,18.5,29.47,SW,225,10.5,18.6,47,0.00,,,0.00,WUHU216HW,2013-11-15 16:27:00,
2013-11-15 09:28:00,36.9,18.5,29.47,SW,225,15.0,18.6,47,0.00,,,0.00,WUHU216HW,2013-11-15 16:28:00,
2013-11-15 09:32:00,36.9,18.5,29.47,West,270,11.4,17.0,47,0.00,,,0.00,WUHU216HW,2013-11-15 16:32:00,
2013-11-15 09:33:00,36.9,18.5,29.47,West,270,9.2,17.0,47,0.00,,,0.00,WUHU216HW,2013-11-15 16:33:00,
2013-11-15 09:37:00,37.1,18.6,29.47,WSW,248,9.2,17.0,47,0.00,,,0.00,WUHU216HW,2013-11-15 16:37:00,
2013-11-15 09:38:00,37.1,18.1,29.47,West,270,10.5,17.0,46,0.00,,,0.00,WUHU216HW,2013-11-15 16:38:00,
2013-11-15 09:39:00,37.1,18.1,29.47,West,270,7.4,17.0,46,0.00,,,0.00,WUHU216HW,2013-11-15 16:39:00,
2013-11-15 09:42:00,37.1,18.1,29.47,SW,225,8.7,12.8,46,0.00,,,0.00,WUHU216HW,2013-11-15 16:42:00,
2013-11-15 09:43:00,37.1,18.1,29.47,SW,225,8.7,12.8,46,0.00,,,0.00,WUHU216HW,2013-11-15 16:43:00,
2013-11-15 09:45:00,37.3,18.8,29.47,WSW,248,6.7,12.8,47,0.00,,,0.00,WUHU216HW,2013-11-15 16:45:00,
2013-11-15 09:47:00,37.3,18.3,29.47,WSW,248,14.3,15.2,46,0.00,,,0.00,WUHU216HW,2013-11-15 16:47:00,
2013-11-15 09:48:00,37.4,18.5,29.47,West,270,9.4,15.2,46,0.00,,,0.00,WUHU216HW,2013-11-15 16:48:00,
2013-11-15 09:50:00,37.3,18.3,29.46,West,270,12.3,15.2,46,0.00,,,0.00,WUHU216HW,2013-11-15 16:50:00,
2013-11-15 09:53:00,37.4,18.5,29.46,West,270,4.7,18.8,46,0.00,,,0.00,WUHU216HW,2013-11-15 16:53:00,
2013-11-15 09:54:00,37.4,18.5,29.47,WSW,248,3.6,18.8,46,0.00,,,0.00,WUHU216HW,2013-11-15 16:54:00,
2013-11-15 09:55:00,37.4,18.5,29.47,SSW,203,3.4,18.8,46,0.00,,,0.00,WUHU216HW,2013-11-15 16:55:00,
2013-11-15 09:58:00,37.6,19.1,29.46,SSW,203,4.7,18.8,47,0.00,,,0.00,WUHU216HW,2013-11-15 16:58:00,
2013-11-15 09:59:00,37.6,19.1,29.46,SSW,203,8.5,18.8,47,0.00,,,0.00,WUHU216HW,2013-11-15 16:59:00,
2013-11-15 10:00:00,37.6,19.1,29.46,SSW,203,6.9,18.8,47,0.00,,,0.00,WUHU216HW,2013-11-15 17:00:00,
2013-11-15 10:03:00,37.8,19.3,29.46,SSW,203,2.5,9.2,47,0.00,,,0.00,WUHU216HW,2013-11-15 17:03:00,
2013-11-15 10:04:00,37.8,19.3,29.46,SSW,203,4.0,9.2,47,0.00,,,0.00,WUHU216HW,2013-11-15 17:04:00,
2013-11-15 10:06:00,37.8,19.3,29.46,SW,225,6.5,9.2,47,0.00,,,0.00,WUHU216HW,2013-11-15 17:06:00,
2013-11-15 10:08:00,38.0,19.4,29.46,West,270,4.0,9.2,47,0.00,,,0.00,WUHU216HW,2013-11-15 17:08:00,
2013-11-15 10:09:00,38.0,18.9,29.46,West,270,3.4,9.2,46,0.00,,,0.00,WUHU216HW,2013-11-15 17:09:00,
2013-11-15 10:11:00,38.0,18.9,29.46,WSW,248,1.8,9.2,46,0.00,,,0.00,WUHU216HW,2013-11-15 17:11:00,
2013-11-15 10:13:00,38.2,19.1,29.46,NE,45,0.4,9.2,46,0.00,,,0.00,WUHU216HW,2013-11-15 17:13:00,
2013-11-15 10:14:00,38.2,19.1,29.46,North,0,1.6,9.2,46,0.00,,,0.00,WUHU216HW,2013-11-15 17:14:00,
2013-11-15 10:16:00,38.2,18.5,29.46,WNW,293,7.2,9.2,45,0.00,,,0.00,WUHU216HW,2013-11-15 17:16:00,
2013-11-15 10:19:00,38.2,18.5,29.47,WNW,293,2.5,7.8,45,0.00,,,0.00,WUHU216HW,2013-11-15 17:19:00,
2013-11-15 10:20:00,38.2,19.1,29.46,NW,315,6.3,7.8,46,0.00,,,0.00,WUHU216HW,2013-11-15 17:20:00,
2013-11-15 10:21:00,38.2,18.5,29.46,NW,315,5.4,7.8,45,0.00,,,0.00,WUHU216HW,2013-11-15 17:21:00,
2013-11-15 10:24:00,38.3,18.7,29.46,NW,315,4.3,7.8,45,0.00,,,0.00,WUHU216HW,2013-11-15 17:24:00,
2013-11-15 10:25:00,38.3,19.3,29.46,WSW,248,2.7,7.8,46,0.00,,,0.00,WUHU216HW,2013-11-15 17:25:00,
2013-11-15 10:26:00,38.3,18.7,29.46,North,0,2.9,7.2,45,0.00,,,0.00,WUHU216HW,2013-11-15 17:26:00,
2013-11-15 10:29:00,38.3,18.7,29.46,WNW,293,7.2,7.2,45,0.00,,,0.00,WUHU216HW,2013-11-15 17:29:00,
2013-11-15 10:30:00,38.5,18.9,29.46,NW,315,3.8,7.2,45,0.00,,,0.00,WUHU216HW,2013-11-15 17:30:00,
2013-11-15 10:31:00,38.5,18.9,29.46,WNW,293,2.7,7.6,45,0.00,,,0.00,WUHU216HW,2013-11-15 17:31:00,
2013-11-15 10:34:00,38.5,18.9,29.46,WSW,248,0.7,7.6,45,0.00,,,0.00,WUHU216HW,2013-11-15 17:34:00,
2013-11-15 10:35:00,38.7,19.1,29.46,NW,315,0.2,7.6,45,0.00,,,0.00,WUHU216HW,2013-11-15 17:35:00,
2013-11-15 10:36:00,38.9,19.2,29.46,WSW,248,2.2,7.6,45,0.00,,,0.00,WUHU216HW,2013-11-15 17:36:00,
2013-11-15 10:39:00,38.9,18.7,29.46,WSW,248,8.5,10.1,44,0.00,,,0.00,WUHU216HW,2013-11-15 17:39:00,
2013-11-15 10:40:00,38.9,19.2,29.46,West,270,4.5,10.1,45,0.00,,,0.00,WUHU216HW,2013-11-15 17:40:00,
2013-11-15 10:41:00,38.9,19.2,29.46,WSW,248,1.8,10.1,45,0.00,,,0.00,WUHU216HW,2013-11-15 17:41:00,
2013-11-15 10:44:00,39.2,19.5,29.46,South,180,0.4,10.1,45,0.00,,,0.00,WUHU216HW,2013-11-15 17:44:00,
2013-11-15 10:45:00,39.2,19.5,29.46,South,180,0.4,10.1,45,0.00,,,0.00,WUHU216HW,2013-11-15 17:45:00,
2013-11-15 10:46:00,39.6,20.3,29.46,WNW,293,3.6,10.1,46,0.00,,,0.00,WUHU216HW,2013-11-15 17:46:00,
2013-11-15 10:49:00,39.8,20.0,29.46,West,270,3.4,4.5,45,0.00,,,0.00,WUHU216HW,2013-11-15 17:49:00,
2013-11-15 10:50:00,40.0,20.2,29.46,West,270,3.8,4.5,45,0.00,,,0.00,WUHU216HW,2013-11-15 17:50:00,
2013-11-15 10:52:00,40.0,20.2,29.46,SW,225,2.0,6.3,45,0.00,,,0.00,WUHU216HW,2013-11-15 17:52:00,
2013-11-15 10:54:00,40.0,20.2,29.45,NW,315,0.4,6.3,45,0.00,,,0.00,WUHU216HW,2013-11-15 17:54:00,
2013-11-15 10:55:00,40.0,20.2,29.45,NW,315,0.2,6.3,45,0.00,,,0.00,WUHU216HW,2013-11-15 17:55:00,
2013-11-15 10:57:00,40.0,20.7,29.45,ENE,68,0.2,6.3,46,0.00,,,0.00,WUHU216HW,2013-11-15 17:57:00,
2013-11-15 11:00:00,40.0,21.3,29.45,SW,225,2.9,6.3,47,0.00,,,0.00,WUHU216HW,2013-11-15 18:00:00,
2013-11-15 11:01:00,40.1,20.9,29.45,SSW,203,3.1,4.7,46,0.00,,,0.00,WUHU216HW,2013-11-15 18:01:00,
2013-11-15 11:02:00,40.1,21.4,29.45,SW,225,2.0,4.7,47,0.00,,,0.00,WUHU216HW,2013-11-15 18:02:00,
2013-11-15 11:05:00,40.3,21.5,29.45,NNW,338,0.9,4.7,47,0.00,,,0.00,WUHU216HW,2013-11-15 18:05:00,
2013-11-15 11:06:00,40.3,20.5,29.45,NW,315,2.2,4.7,45,0.00,,,0.00,WUHU216HW,2013-11-15 18:06:00,
2013-11-15 11:07:00,40.3,20.0,29.45,WSW,248,8.5,8.5,44,0.00,,,0.00,WUHU216HW,2013-11-15 18:07:00,
2013-11-15 11:10:00,40.3,20.5,29.45,ENE,68,7.2,8.5,45,0.00,,,0.00,WUHU216HW,2013-11-15 18:10:00,
2013-11-15 11:11:00,40.3,20.5,29.45,SSW,203,4.0,8.5,45,0.00,,,0.00,WUHU216HW,2013-11-15 18:11:00,
2013-11-15 11:12:00,40.5,20.2,29.45,NW,315,7.4,8.5,44,0.00,,,0.00,WUHU216HW,2013-11-15 18:12:00,
2013-11-15 11:13:00,40.5,20.7,29.45,NW,315,7.4,8.5,45,0.00,,,0.00,WUHU216HW,2013-11-15 18:13:00,
2013-11-15 11:15:00,40.7,19.3,29.45,NW,315,4.3,8.5,42,0.00,,,0.00,WUHU216HW,2013-11-15 18:15:00,
2013-11-15 11:17:00,40.7,19.3,29.45,WNW,293,5.1,8.5,42,0.00,,,0.00,WUHU216HW,2013-11-15 18:17:00,
2013-11-15 11:18:00,40.7,19.3,29.45,WNW,293,8.3,8.3,42,0.00,,,0.00,WUHU216HW,2013-11-15 18:18:00,
2013-11-15 11:20:00,40.7,19.8,29.45,WSW,248,6.3,8.5,43,0.00,,,0.00,WUHU216HW,2013-11-15 18:20:00,
2013-11-15 11:21:00,40.7,19.3,29.45,WSW,248,7.2,10.3,42,0.00,,,0.00,WUHU216HW,2013-11-15 18:21:00,
2013-11-15 11:22:00,40.7,18.7,29.45,West,270,4.7,10.3,41,0.00,,,0.00,WUHU216HW,2013-11-15 18:22:00,
2013-11-15 11:23:00,40.7,19.3,29.44,West,270,3.4,10.3,42,0.00,,,0.00,WUHU216HW,2013-11-15 18:23:00,
2013-11-15 11:25:00,41.0,20.1,29.44,West,270,4.3,12.8,43,0.00,,,0.00,WUHU216HW,2013-11-15 18:25:00,
2013-11-15 11:26:00,41.0,19.6,29.44,WNW,293,5.8,12.8,42,0.00,,,0.00,WUHU216HW,2013-11-15 18:26:00,
2013-11-15 11:27:00,41.2,19.7,29.44,WNW,293,6.3,12.8,42,0.00,,,0.00,WUHU216HW,2013-11-15 18:27:00,
2013-11-15 11:28:00,41.4,19.9,29.44,WSW,248,5.4,12.8,42,0.00,,,0.00,WUHU216HW,2013-11-15 18:28:00,
2013-11-15 11:31:00,41.8,20.3,29.44,West,270,4.7,12.8,42,0.00,,,0.00,WUHU216HW,2013-11-15 18:31:00,
2013-11-15 11:32:00,41.9,19.9,29.44,NNW,338,4.7,12.8,41,0.00,,,0.00,WUHU216HW,2013-11-15 18:32:00,
2013-11-15 11:33:00,42.1,20.1,29.44,West,270,8.1,12.8,41,0.00,,,0.00,WUHU216HW,2013-11-15 18:33:00,
2013-11-15 11:36:00,42.7,20.5,29.43,NW,315,5.6,9.4,41,0.00,,,0.00,WUHU216HW,2013-11-15 18:36:00,
2013-11-15 11:37:00,42.8,20.2,29.43,NNW,338,8.1,9.4,40,0.00,,,0.00,WUHU216HW,2013-11-15 18:37:00,
2013-11-15 11:38:00,43.0,20.4,29.43,WNW,293,7.6,9.4,40,0.00,,,0.00,WUHU216HW,2013-11-15 18:38:00,
2013-11-15 11:39:00,43.0,19.6,29.43,WNW,293,9.4,11.0,39,0.00,,,0.00,WUHU216HW,2013-11-15 18:39:00,
2013-11-15 11:41:00,43.2,19.8,29.43,NW,315,15.7,15.7,39,0.00,,,0.00,WUHU216HW,2013-11-15 18:41:00,
2013-11-15 11:42:00,43.2,19.8,29.43,NW,315,15.7,15.7,39,0.00,,,0.00,WUHU216HW,2013-11-15 18:42:00,
2013-11-15 11:43:00,42.8,18.8,29.43,NW,315,6.9,15.7,38,0.00,,,0.00,WUHU216HW,2013-11-15 18:43:00,
2013-11-15 11:44:00,42.8,18.8,29.43,WNW,293,7.8,15.7,38,0.00,,,0.00,WUHU216HW,2013-11-15 18:44:00,
2013-11-15 11:45:00,42.5,19.2,29.43,WSW,248,5.1,15.7,39,0.00,,,0.00,WUHU216HW,2013-11-15 18:45:00,
2013-11-15 11:46:00,42.1,18.8,29.43,NW,315,8.3,15.7,39,0.00,,,0.00,WUHU216HW,2013-11-15 18:46:00,
2013-11-15 11:47:00,42.1,19.5,29.43,NW,315,7.6,15.7,40,0.00,,,0.00,WUHU216HW,2013-11-15 18:47:00,
2013-11-15 11:48:00,42.1,19.5,29.43,WSW,248,8.9,15.7,40,0.00,,,0.00,WUHU216HW,2013-11-15 18:48:00,
2013-11-15 11:49:00,42.3,19.7,29.43,WSW,248,7.2,15.7,40,0.00,,,0.00,WUHU216HW,2013-11-15 18:49:00,
2013-11-15 11:50:00,42.3,19.7,29.43,WNW,293,5.8,15.7,40,0.00,,,0.00,WUHU216HW,2013-11-15 18:50:00,
2013-11-15 11:52:00,42.5,19.8,29.43,West,270,5.4,15.7,40,0.00,,,0.00,WUHU216HW,2013-11-15 18:52:00,
2013-11-15 11:53:00,42.7,20.0,29.43,West,270,3.8,8.9,40,0.00,,,0.00,WUHU216HW,2013-11-15 18:53:00,
2013-11-15 11:54:00,42.5,19.8,29.43,West,270,7.2,8.9,40,0.00,,,0.00,WUHU216HW,2013-11-15 18:54:00,
2013-11-15 11:55:00,42.5,19.8,29.43,West,270,6.9,8.9,40,0.00,,,0.00,WUHU216HW,2013-11-15 18:55:00,
2013-11-15 11:57:00,42.8,20.2,29.43,NW,315,4.0,8.9,40,0.00,,,0.00,WUHU216HW,2013-11-15 18:57:00,
2013-11-15 11:58:00,42.7,20.0,29.43,West,270,2.9,8.9,40,0.00,,,0.00,WUHU216HW,2013-11-15 18:58:00,
2013-11-15 11:59:00,42.8,20.2,29.42,West,270,5.4,7.2,40,0.00,,,0.00,WUHU216HW,2013-11-15 18:59:00,
2013-11-15 12:00:00,42.8,20.2,29.42,West,270,5.4,7.2,40,0.00,,,0.00,WUHU216HW,2013-11-15 19:00:00,
2013-11-15 12:02:00,43.0,20.4,29.42,West,270,2.0,7.2,40,0.00,,,0.00,WUHU216HW,2013-11-15 19:02:00,
2013-11-15 12:03:00,43.0,19.6,29.42,WNW,293,5.1,7.2,39,0.00,,,0.00,WUHU216HW,2013-11-15 19:03:00,
2013-11-15 12:04:00,43.0,19.6,29.42,West,270,3.8,7.2,39,0.00,,,0.00,WUHU216HW,2013-11-15 19:04:00,
2013-11-15 12:05:00,43.2,20.5,29.42,WSW,248,3.1,6.9,40,0.00,,,0.00,WUHU216HW,2013-11-15 19:05:00,
2013-11-15 12:07:00,43.4,20.0,29.42,West,270,4.7,5.4,39,0.00,,,0.00,WUHU216HW,2013-11-15 19:07:00,
2013-11-15 12:08:00,43.6,20.2,29.42,West,270,6.3,6.3,39,0.00,,,0.00,WUHU216HW,2013-11-15 19:08:00,
2013-11-15 12:09:00,43.6,19.4,29.42,WNW,293,6.3,6.9,38,0.00,,,0.00,WUHU216HW,2013-11-15 19:09:00,
2013-11-15 12:10:00,43.4,19.4,29.42,WNW,293,5.6,6.9,38,0.00,,,0.00,WUHU216HW,2013-11-15 19:10:00,
2013-11-15 12:11:00,43.2,19.8,29.42,NW,315,6.9,6.9,39,0.00,,,0.00,WUHU216HW,2013-11-15 19:11:00,
2013-11-15 12:12:00,43.0,20.4,29.42,NW,315,4.3,6.9,40,0.00,,,0.00,WUHU216HW,2013-11-15 19:12:00,
2013-11-15 12:13:00,43.0,19.6,29.42,WNW,293,7.8,8.9,39,0.00,,,0.00,WUHU216HW,2013-11-15 19:13:00,
2013-11-15 12:14:00,43.2,19.8,29.42,NW,315,5.8,8.9,39,0.00,,,0.00,WUHU216HW,2013-11-15 19:14:00,
2013-11-15 12:15:00,43.2,20.5,29.42,WSW,248,3.6,8.9,40,0.00,,,0.00,WUHU216HW,2013-11-15 19:15:00,
2013-11-15 12:16:00,43.4,20.6,29.42,WSW,248,5.4,8.9,40,0.00,,,0.00,WUHU216HW,2013-11-15 19:16:00,
2013-11-15 12:18:00,43.6,20.8,29.41,SSW,203,5.1,8.9,40,0.00,,,0.00,WUHU216HW,2013-11-15 19:18:00,
2013-11-15 12:19:00,43.6,20.2,29.41,SW,225,9.4,9.8,39,0.00,,,0.00,WUHU216HW,2013-11-15 19:19:00,
2013-11-15 12:20:00,43.6,19.4,29.41,WSW,248,14.3,14.3,38,0.00,,,0.00,WUHU216HW,2013-11-15 19:20:00,
2013-11-15 12:21:00,43.4,19.4,29.41,SW,225,8.9,14.3,38,0.00,,,0.00,WUHU216HW,2013-11-15 19:21:00,
2013-11-15 12:23:00,43.0,19.6,29.41,WSW,248,11.9,14.3,39,0.00,,,0.00,WUHU216HW,2013-11-15 19:23:00,
2013-11-15 12:24:00,43.0,19.6,29.41,WSW,248,9.6,14.3,39,0.00,,,0.00,WUHU216HW,2013-11-15 19:24:00,
2013-11-15 12:25:00,43.2,20.5,29.41,SSW,203,12.1,14.3,40,0.00,,,0.00,WUHU216HW,2013-11-15 19:25:00,
2013-11-15 12:27:00,43.2,19.8,29.41,SW,225,6.5,14.3,39,0.00,,,0.00,WUHU216HW,2013-11-15 19:27:00,
2013-11-15 12:28:00,43.2,19.8,29.41,SSW,203,6.5,14.3,39,0.00,,,0.00,WUHU216HW,2013-11-15 19:28:00,
2013-11-15 12:29:00,43.4,20.0,29.41,SSW,203,5.8,14.3,39,0.00,,,0.00,WUHU216HW,2013-11-15 19:29:00,
2013-11-15 12:30:00,43.2,20.5,29.41,SW,225,10.3,14.3,40,0.00,,,0.00,WUHU216HW,2013-11-15 19:30:00,
2013-11-15 12:32:00,43.2,19.8,29.41,West,270,7.2,12.1,39,0.00,,,0.00,WUHU216HW,2013-11-15 19:32:00,
2013-11-15 12:33:00,42.8,19.5,29.41,WSW,248,12.3,12.3,39,0.00,,,0.00,WUHU216HW,2013-11-15 19:33:00,
2013-11-15 12:34:00,42.7,19.4,29.41,West,270,11.4,12.3,39,0.00,,,0.00,WUHU216HW,2013-11-15 19:34:00,
2013-11-15 12:36:00,42.1,19.5,29.41,SW,225,8.5,12.3,40,0.00,,,0.00,WUHU216HW,2013-11-15 19:36:00,
2013-11-15 12:37:00,42.1,19.5,29.41,SW,225,7.8,12.3,40,0.00,,,0.00,WUHU216HW,2013-11-15 19:37:00,
2013-11-15 12:38:00,42.1,19.5,29.41,SW,225,8.5,12.3,40,0.00,,,0.00,WUHU216HW,2013-11-15 19:38:00,
2013-11-15 12:39:00,41.9,19.4,29.41,WSW,248,6.7,12.3,40,0.00,,,0.00,WUHU216HW,2013-11-15 19:39:00,
2013-11-15 12:41:00,41.9,19.4,29.40,WNW,293,11.4,12.3,40,0.00,,,0.00,WUHU216HW,2013-11-15 19:41:00,
2013-11-15 12:42:00,41.8,19.7,29.40,SW,225,12.1,14.3,41,0.00,,,0.00,WUHU216HW,2013-11-15 19:42:00,
2013-11-15 12:43:00,41.8,19.7,29.40,WSW,248,12.3,14.3,41,0.00,,,0.00,WUHU216HW,2013-11-15 19:43:00,
2013-11-15 12:44:00,41.8,19.2,29.40,WSW,248,9.4,14.3,40,0.00,,,0.00,WUHU216HW,2013-11-15 19:44:00,
2013-11-15 12:45:00,41.8,19.2,29.40,West,270,11.9,14.3,40,0.00,,,0.00,WUHU216HW,2013-11-15 19:45:00,
2013-11-15 12:47:00,41.8,19.2,29.40,WSW,248,3.8,14.3,40,0.00,,,0.00,WUHU216HW,2013-11-15 19:47:00,
2013-11-15 12:49:00,41.8,19.7,29.40,WSW,248,6.9,14.3,41,0.00,,,0.00,WUHU216HW,2013-11-15 19:49:00,
2013-11-15 12:50:00,41.8,19.2,29.40,WSW,248,9.8,14.3,40,0.00,,,0.00,WUHU216HW,2013-11-15 19:50:00,
2013-11-15 12:52:00,41.6,19.0,29.40,West,270,7.6,12.8,40,0.00,,,0.00,WUHU216HW,2013-11-15 19:52:00,
2013-11-15 12:53:00,41.4,18.9,29.40,WSW,248,6.9,12.8,40,0.00,,,0.00,WUHU216HW,2013-11-15 19:53:00,
2013-11-15 12:54:00,41.4,18.9,29.40,West,270,4.5,12.8,40,0.00,,,0.00,WUHU216HW,2013-11-15 19:54:00,
2013-11-15 12:55:00,41.4,18.9,29.40,WSW,248,3.8,12.8,40,0.00,,,0.00,WUHU216HW,2013-11-15 19:55:00,
2013-11-15 12:57:00,41.4,19.4,29.39,SW,225,4.7,12.8,41,0.00,,,0.00,WUHU216HW,2013-11-15 19:57:00,
2013-11-15 12:58:00,41.4,19.4,29.39,SW,225,4.7,12.8,41,0.00,,,0.00,WUHU216HW,2013-11-15 19:58:00,
2013-11-15 12:59:00,41.4,19.4,29.39,SW,225,6.3,12.8,41,0.00,,,0.00,WUHU216HW,2013-11-15 19:59:00,
2013-11-15 13:00:00,41.4,19.9,29.39,SW,225,5.4,12.8,42,0.00,,,0.00,WUHU216HW,2013-11-15 20:00:00,
2013-11-15 13:02:00,41.8,19.7,29.39,SW,225,5.1,8.1,41,0.00,,,0.00,WUHU216HW,2013-11-15 20:02:00,
2013-11-15 13:03:00,41.8,19.2,29.39,West,270,5.4,8.1,40,0.00,,,0.00,WUHU216HW,2013-11-15 20:03:00,
2013-11-15 13:04:00,41.8,19.7,29.39,SSW,203,1.8,8.1,41,0.00,,,0.00,WUHU216HW,2013-11-15 20:04:00,
2013-11-15 13:05:00,41.8,19.7,29.38,SSW,203,2.7,8.1,41,0.00,,,0.00,WUHU216HW,2013-11-15 20:05:00,
2013-11-15 13:06:00,41.8,19.7,29.38,South,180,4.9,8.1,41,0.00,,,0.00,WUHU216HW,2013-11-15 20:06:00,
2013-11-15 13:08:00,42.1,20.6,29.38,SE,135,6.3,8.1,42,0.00,,,0.00,WUHU216HW,2013-11-15 20:08:00,
2013-11-15 13:09:00,41.9,19.9,29.38,South,180,3.8,8.1,41,0.00,,,0.00,WUHU216HW,2013-11-15 20:09:00,
2013-11-15 13:10:00,42.1,20.6,29.38,South,180,3.1,8.1,42,0.00,,,0.00,WUHU216HW,2013-11-15 20:10:00,
2013-11-15 13:11:00,42.1,20.6,29.38,South,180,2.0,8.1,42,0.00,,,0.00,WUHU216HW,2013-11-15 20:11:00,
2013-11-15 13:13:00,42.3,19.7,29.38,West,270,1.3,7.6,40,0.00,,,0.00,WUHU216HW,2013-11-15 20:13:00,
2013-11-15 13:14:00,42.3,19.7,29.38,SW,225,4.5,7.6,40,0.00,,,0.00,WUHU216HW,2013-11-15 20:14:00,
2013-11-15 13:15:00,42.5,19.8,29.38,WSW,248,2.7,7.6,40,0.00,,,0.00,WUHU216HW,2013-11-15 20:15:00,
2013-11-15 13:16:00,42.3,19.7,29.38,WSW,248,3.4,7.6,40,0.00,,,0.00,WUHU216HW,2013-11-15 20:16:00,
2013-11-15 13:18:00,42.1,19.5,29.38,NNE,23,0.7,5.4,40,0.00,,,0.00,WUHU216HW,2013-11-15 20:18:00,
2013-11-15 13:19:00,42.1,19.5,29.38,NNE,23,0.9,4.7,40,0.00,,,0.00,WUHU216HW,2013-11-15 20:19:00,
2013-11-15 13:20:00,42.3,19.7,29.38,North,0,0.4,4.7,40,0.00,,,0.00,WUHU216HW,2013-11-15 20:20:00,
2013-11-15 13:21:00,42.1,19.5,29.38,WNW,293,4.0,4.7,40,0.00,,,0.00,WUHU216HW,2013-11-15 20:21:00,
2013-11-15 13:23:00,42.1,19.5,29.38,SW,225,6.9,6.9,40,0.00,,,0.00,WUHU216HW,2013-11-15 20:23:00,
2013-11-15 13:25:00,42.1,19.5,29.38,WSW,248,5.8,9.8,40,0.00,,,0.00,WUHU216HW,2013-11-15 20:25:00,
2013-11-15 13:26:00,42.1,19.5,29.38,SE,135,3.4,9.8,40,0.00,,,0.00,WUHU216HW,2013-11-15 20:26:00,
2013-11-15 13:29:00,42.1,20.1,29.37,WSW,248,3.8,9.8,41,0.00,,,0.00,WUHU216HW,2013-11-15 20:29:00,
2013-11-15 13:30:00,42.1,19.5,29.37,WSW,248,3.8,9.8,40,0.00,,,0.00,WUHU216HW,2013-11-15 20:30:00,
2013-11-15 13:31:00,42.1,20.1,29.37,WSW,248,4.0,9.8,41,0.00,,,0.00,WUHU216HW,2013-11-15 20:31:00,
2013-11-15 13:32:00,42.1,20.1,29.37,SW,225,9.8,10.1,41,0.00,,,0.00,WUHU216HW,2013-11-15 20:32:00,
2013-11-15 13:35:00,42.1,19.5,29.37,SW,225,6.0,13.2,40,0.00,,,0.00,WUHU216HW,2013-11-15 20:35:00,
2013-11-15 13:36:00,42.1,19.5,29.37,WSW,248,13.9,13.9,40,0.00,,,0.00,WUHU216HW,2013-11-15 20:36:00,
2013-11-15 13:38:00,41.9,19.4,29.37,SW,225,4.0,13.9,40,0.00,,,0.00,WUHU216HW,2013-11-15 20:38:00,
2013-11-15 13:40:00,41.9,19.4,29.37,WSW,248,4.0,13.9,40,0.00,,,0.00,WUHU216HW,2013-11-15 20:40:00,
2013-11-15 13:41:00,41.9,19.4,29.37,SW,225,6.9,13.9,40,0.00,,,0.00,WUHU216HW,2013-11-15 20:41:00,
2013-11-15 13:42:00,41.9,19.4,29.37,SW,225,6.5,13.9,40,0.00,,,0.00,WUHU216HW,2013-11-15 20:42:00,
2013-11-15 13:43:00,42.1,20.1,29.37,SW,225,3.8,13.9,41,0.00,,,0.00,WUHU216HW,2013-11-15 20:43:00,
2013-11-15 13:45:00,42.1,20.6,29.37,West,270,3.8,13.9,42,0.00,,,0.00,WUHU216HW,2013-11-15 20:45:00,
2013-11-15 13:46:00,42.3,19.7,29.37,West,270,3.1,13.9,40,0.00,,,0.00,WUHU216HW,2013-11-15 20:46:00,
2013-11-15 13:47:00,42.3,20.3,29.37,WNW,293,2.5,13.6,41,0.00,,,0.00,WUHU216HW,2013-11-15 20:47:00,
2013-11-15 13:48:00,42.3,20.3,29.37,NNW,338,1.8,6.9,41,0.00,,,0.00,WUHU216HW,2013-11-15 20:48:00,
2013-11-15 13:49:00,42.3,20.3,29.37,WNW,293,1.8,6.9,41,0.00,,,0.00,WUHU216HW,2013-11-15 20:49:00,
2013-11-15 13:51:00,42.5,19.8,29.37,NNE,23,1.1,6.5,40,0.00,,,0.00,WUHU216HW,2013-11-15 20:51:00,
2013-11-15 13:52:00,42.7,20.5,29.37,North,0,0.4,6.5,41,0.00,,,0.00,WUHU216HW,2013-11-15 20:52:00,
2013-11-15 13:54:00,42.5,19.8,29.37,North,0,3.4,4.3,40,0.00,,,0.00,WUHU216HW,2013-11-15 20:54:00,
2013-11-15 13:55:00,42.5,19.2,29.37,NW,315,4.7,6.3,39,0.00,,,0.00,WUHU216HW,2013-11-15 20:55:00,
2013-11-15 13:56:00,42.1,18.8,29.37,NW,315,6.0,7.6,39,0.00,,,0.00,WUHU216HW,2013-11-15 20:56:00,
2013-11-15 13:57:00,41.8,19.2,29.37,NW,315,5.6,7.6,40,0.00,,,0.00,WUHU216HW,2013-11-15 20:57:00,
2013-11-15 13:59:00,41.8,19.2,29.37,West,270,1.6,7.6,40,0.00,,,0.00,WUHU216HW,2013-11-15 20:59:00,
2013-11-15 14:00:00,41.6,19.5,29.37,NW,315,5.8,7.6,41,0.00,,,0.00,WUHU216HW,2013-11-15 21:00:00,
2013-11-15 14:01:00,41.8,19.7,29.37,WNW,293,5.4,7.6,41,0.00,,,0.00,WUHU216HW,2013-11-15 21:01:00,
2013-11-15 14:02:00,41.8,19.7,29.37,West,270,9.6,9.6,41,0.00,,,0.00,WUHU216HW,2013-11-15 21:02:00,
2013-11-15 14:04:00,41.6,19.0,29.36,NW,315,7.2,13.9,40,0.00,,,0.00,WUHU216HW,2013-11-15 21:04:00,
2013-11-15 14:05:00,41.4,19.4,29.37,WSW,248,6.3,13.9,41,0.00,,,0.00,WUHU216HW,2013-11-15 21:05:00,
2013-11-15 14:06:00,41.4,19.4,29.37,WSW,248,9.2,13.9,41,0.00,,,0.00,WUHU216HW,2013-11-15 21:06:00,
2013-11-15 14:07:00,41.4,19.4,29.37,WSW,248,8.1,13.9,41,0.00,,,0.00,WUHU216HW,2013-11-15 21:07:00,
2013-11-15 14:08:00,41.4,19.4,29.37,SW,225,5.4,13.9,41,0.00,,,0.00,WUHU216HW,2013-11-15 21:08:00,
2013-11-15 14:09:00,41.4,19.9,29.37,SSW,203,13.0,13.9,42,0.00,,,0.00,WUHU216HW,2013-11-15 21:09:00,
2013-11-15 14:10:00,41.6,20.1,29.37,SSW,203,9.2,15.2,42,0.00,,,0.00,WUHU216HW,2013-11-15 21:10:00,
2013-11-15 14:12:00,41.8,20.3,29.36,SW,225,10.3,15.2,42,0.00,,,0.00,WUHU216HW,2013-11-15 21:12:00,
2013-11-15 14:13:00,41.8,20.3,29.36,SSW,203,10.5,15.2,42,0.00,,,0.00,WUHU216HW,2013-11-15 21:13:00,
2013-11-15 14:15:00,42.1,20.6,29.36,SW,225,10.7,15.2,42,0.00,,,0.00,WUHU216HW,2013-11-15 21:15:00,
2013-11-15 14:16:00,42.1,20.6,29.36,SW,225,7.4,15.2,42,0.00,,,0.00,WUHU216HW,2013-11-15 21:16:00,
2013-11-15 14:17:00,42.1,20.6,29.36,SW,225,5.1,15.2,42,0.00,,,0.00,WUHU216HW,2013-11-15 21:17:00,
2013-11-15 14:18:00,42.3,20.3,29.36,SW,225,12.5,15.2,41,0.00,,,0.00,WUHU216HW,2013-11-15 21:18:00,
2013-11-15 14:20:00,42.3,19.7,29.36,West,270,7.2,13.4,40,0.00,,,0.00,WUHU216HW,2013-11-15 21:20:00,
2013-11-15 14:21:00,42.3,19.7,29.36,WSW,248,9.4,12.8,40,0.00,,,0.00,WUHU216HW,2013-11-15 21:21:00,
2013-11-15 14:22:00,42.1,19.5,29.35,SW,225,4.9,12.5,40,0.00,,,0.00,WUHU216HW,2013-11-15 21:22:00,
2013-11-15 14:23:00,42.1,19.5,29.35,SW,225,7.6,12.5,40,0.00,,,0.00,WUHU216HW,2013-11-15 21:23:00,
2013-11-15 14:25:00,42.5,19.8,29.35,SW,225,6.9,12.5,40,0.00,,,0.00,WUHU216HW,2013-11-15 21:25:00,
2013-11-15 14:26:00,42.5,19.8,29.35,SW,225,9.8,12.5,40,0.00,,,0.00,WUHU216HW,2013-11-15 21:26:00,
2013-11-15 14:27:00,42.7,20.0,29.35,SSW,203,7.6,12.5,40,0.00,,,0.00,WUHU216HW,2013-11-15 21:27:00,
2013-11-15 14:28:00,42.8,20.2,29.35,SW,225,9.4,12.5,40,0.00,,,0.00,WUHU216HW,2013-11-15 21:28:00,
2013-11-15 14:29:00,43.0,20.4,29.35,SW,225,6.9,10.5,40,0.00,,,0.00,WUHU216HW,2013-11-15 21:29:00,
2013-11-15 14:31:00,43.2,20.5,29.35,WSW,248,6.3,10.5,40,0.00,,,0.00,WUHU216HW,2013-11-15 21:31:00,
2013-11-15 14:32:00,43.4,19.4,29.35,WNW,293,5.4,10.5,38,0.00,,,0.00,WUHU216HW,2013-11-15 21:32:00,
2013-11-15 14:33:00,43.4,19.4,29.35,WNW,293,5.4,10.5,38,0.00,,,0.00,WUHU216HW,2013-11-15 21:33:00,
2013-11-15 14:34:00,43.2,19.2,29.35,WSW,248,1.8,10.5,38,0.00,,,0.00,WUHU216HW,2013-11-15 21:34:00,
2013-11-15 14:36:00,43.0,19.0,29.35,NW,315,7.6,10.5,38,0.00,,,0.00,WUHU216HW,2013-11-15 21:36:00,
2013-11-15 14:37:00,42.8,18.8,29.35,WNW,293,10.5,10.5,38,0.00,,,0.00,WUHU216HW,2013-11-15 21:37:00,
2013-11-15 14:38:00,42.8,18.8,29.35,WNW,293,10.5,10.5,38,0.00,,,0.00,WUHU216HW,2013-11-15 21:38:00,
2013-11-15 14:39:00,42.7,18.6,29.35,WNW,293,6.3,10.5,38,0.00,,,0.00,WUHU216HW,2013-11-15 21:39:00,
2013-11-15 14:40:00,42.3,19.0,29.35,SW,225,6.3,10.5,39,0.00,,,0.00,WUHU216HW,2013-11-15 21:40:00,
2013-11-15 14:42:00,42.3,19.0,29.35,WSW,248,1.6,10.5,39,0.00,,,0.00,WUHU216HW,2013-11-15 21:42:00,
2013-11-15 14:43:00,42.1,19.5,29.35,SW,225,0.0,10.5,40,0.00,,,0.00,WUHU216HW,2013-11-15 21:43:00,
2013-11-15 14:44:00,42.1,19.5,29.35,SW,225,2.5,10.5,40,0.00,,,0.00,WUHU216HW,2013-11-15 21:44:00,
2013-11-15 14:45:00,42.3,19.7,29.35,SW,225,3.4,10.5,40,0.00,,,0.00,WUHU216HW,2013-11-15 21:45:00,
2013-11-15 14:47:00,42.3,19.7,29.35,WSW,248,4.0,10.5,40,0.00,,,0.00,WUHU216HW,2013-11-15 21:47:00,
2013-11-15 14:48:00,42.3,19.7,29.35,West,270,4.5,10.5,40,0.00,,,0.00,WUHU216HW,2013-11-15 21:48:00,
2013-11-15 14:49:00,42.3,19.7,29.35,West,270,2.5,7.4,40,0.00,,,0.00,WUHU216HW,2013-11-15 21:49:00,
2013-11-15 14:50:00,42.3,19.7,29.35,WSW,248,1.8,6.3,40,0.00,,,0.00,WUHU216HW,2013-11-15 21:50:00,
2013-11-15 14:52:00,42.3,19.7,29.35,West,270,1.1,4.9,40,0.00,,,0.00,WUHU216HW,2013-11-15 21:52:00,
2013-11-15 14:53:00,42.1,20.1,29.35,SE,135,0.9,4.9,41,0.00,,,0.00,WUHU216HW,2013-11-15 21:53:00,
2013-11-15 14:54:00,42.3,20.3,29.35,SW,225,0.9,4.9,41,0.00,,,0.00,WUHU216HW,2013-11-15 21:54:00,
2013-11-15 14:56:00,42.3,20.3,29.34,SW,225,2.5,5.8,41,0.00,,,0.00,WUHU216HW,2013-11-15 21:56:00,
2013-11-15 14:57:00,42.3,20.3,29.34,SSW,203,2.5,5.8,41,0.00,,,0.00,WUHU216HW,2013-11-15 21:57:00,
2013-11-15 14:58:00,42.3,20.3,29.34,SW,225,7.8,7.8,41,0.00,,,0.00,WUHU216HW,2013-11-15 21:58:00,
2013-11-15 14:59:00,42.3,19.7,29.34,SW,225,4.9,7.8,40,0.00,,,0.00,WUHU216HW,2013-11-15 21:59:00,
2013-11-15 15:01:00,42.1,19.5,29.34,WSW,248,9.4,10.7,40,0.00,,,0.00,WUHU216HW,2013-11-15 22:01:00,
2013-11-15 15:02:00,42.1,19.5,29.34,West,270,4.0,10.7,40,0.00,,,0.00,WUHU216HW,2013-11-15 22:02:00,
2013-11-15 15:03:00,42.1,19.5,29.34,WSW,248,6.7,10.7,40,0.00,,,0.00,WUHU216HW,2013-11-15 22:03:00,
2013-11-15 15:04:00,41.9,19.4,29.34,SW,225,5.6,10.7,40,0.00,,,0.00,WUHU216HW,2013-11-15 22:04:00,
2013-11-15 15:05:00,41.9,19.4,29.35,SW,225,7.2,10.7,40,0.00,,,0.00,WUHU216HW,2013-11-15 22:05:00,
2013-11-15 15:06:00,41.6,19.0,29.35,WSW,248,5.4,10.7,40,0.00,,,0.00,WUHU216HW,2013-11-15 22:06:00,
2013-11-15 15:08:00,41.4,18.2,29.35,WSW,248,7.2,10.7,39,0.00,,,0.00,WUHU216HW,2013-11-15 22:08:00,
2013-11-15 15:09:00,41.4,18.2,29.34,WSW,248,7.2,10.7,39,0.00,,,0.00,WUHU216HW,2013-11-15 22:09:00,
2013-11-15 15:10:00,41.2,18.7,29.34,SW,225,5.8,10.7,40,0.00,,,0.00,WUHU216HW,2013-11-15 22:10:00,
2013-11-15 15:11:00,41.2,18.7,29.34,SW,225,5.6,10.7,40,0.00,,,0.00,WUHU216HW,2013-11-15 22:11:00,
2013-11-15 15:12:00,41.2,18.7,29.34,WSW,248,9.6,10.7,40,0.00,,,0.00,WUHU216HW,2013-11-15 22:12:00,
2013-11-15 15:13:00,41.0,19.1,29.34,West,270,6.3,10.7,41,0.00,,,0.00,WUHU216HW,2013-11-15 22:13:00,
2013-11-15 15:14:00,41.0,19.1,29.34,WSW,248,5.6,10.7,41,0.00,,,0.00,WUHU216HW,2013-11-15 22:14:00,
2013-11-15 15:15:00,41.0,19.1,29.34,WSW,248,3.4,9.6,41,0.00,,,0.00,WUHU216HW,2013-11-15 22:15:00,
2013-11-15 15:17:00,41.0,19.1,29.34,WSW,248,2.7,9.6,41,0.00,,,0.00,WUHU216HW,2013-11-15 22:17:00,
2013-11-15 15:18:00,40.9,18.9,29.34,WSW,248,3.8,9.6,41,0.00,,,0.00,WUHU216HW,2013-11-15 22:18:00,
2013-11-15 15:19:00,40.9,18.9,29.34,WSW,248,4.3,9.6,41,0.00,,,0.00,WUHU216HW,2013-11-15 22:19:00,
2013-11-15 15:20:00,40.9,18.9,29.34,WSW,248,5.4,9.6,41,0.00,,,0.00,WUHU216HW,2013-11-15 22:20:00,
2013-11-15 15:21:00,40.9,18.9,29.34,West,270,6.7,9.6,41,0.00,,,0.00,WUHU216HW,2013-11-15 22:21:00,
2013-11-15 15:22:00,40.9,18.9,29.34,West,270,4.5,9.6,41,0.00,,,0.00,WUHU216HW,2013-11-15 22:22:00,
2013-11-15 15:23:00,40.7,18.7,29.34,West,270,5.6,6.9,41,0.00,,,0.00,WUHU216HW,2013-11-15 22:23:00,
2013-11-15 15:24:00,40.7,18.7,29.34,West,270,5.1,6.9,41,0.00,,,0.00,WUHU216HW,2013-11-15 22:24:00,
2013-11-15 15:25:00,40.7,18.7,29.34,WSW,248,9.8,9.8,41,0.00,,,0.00,WUHU216HW,2013-11-15 22:25:00,
2013-11-15 15:26:00,40.7,18.7,29.34,WSW,248,8.5,9.8,41,0.00,,,0.00,WUHU216HW,2013-11-15 22:26:00,
2013-11-15 15:27:00,40.7,18.7,29.34,WSW,248,8.3,9.8,41,0.00,,,0.00,WUHU216HW,2013-11-15 22:27:00,
2013-11-15 15:28:00,40.7,18.7,29.34,West,270,7.2,9.8,41,0.00,,,0.00,WUHU216HW,2013-11-15 22:28:00,
2013-11-15 15:29:00,40.7,18.7,29.34,WSW,248,9.2,10.3,41,0.00,,,0.00,WUHU216HW,2013-11-15 22:29:00,
2013-11-15 15:31:00,40.7,18.2,29.34,WSW,248,9.6,10.3,40,0.00,,,0.00,WUHU216HW,2013-11-15 22:31:00,
2013-11-15 15:33:00,40.7,18.2,29.34,WSW,248,7.6,10.3,40,0.00,,,0.00,WUHU216HW,2013-11-15 22:33:00,
2013-11-15 15:34:00,40.7,18.7,29.34,West,270,3.6,10.3,41,0.00,,,0.00,WUHU216HW,2013-11-15 22:34:00,
2013-11-15 15:36:00,40.5,18.5,29.34,West,270,6.3,10.3,41,0.00,,,0.00,WUHU216HW,2013-11-15 22:36:00,
2013-11-15 15:38:00,40.5,19.1,29.34,West,270,5.6,10.3,42,0.00,,,0.00,WUHU216HW,2013-11-15 22:38:00,
2013-11-15 15:39:00,40.5,19.1,29.34,WNW,293,6.0,10.3,42,0.00,,,0.00,WUHU216HW,2013-11-15 22:39:00,
2013-11-15 15:40:00,40.3,18.9,29.34,WNW,293,4.9,10.3,42,0.00,,,0.00,WUHU216HW,2013-11-15 22:40:00,
2013-11-15 15:41:00,40.3,18.5,29.34,West,270,6.9,10.3,41,0.00,,,0.00,WUHU216HW,2013-11-15 22:41:00,
2013-11-15 15:43:00,40.3,18.5,29.34,West,270,8.7,8.7,41,0.00,,,0.00,WUHU216HW,2013-11-15 22:43:00,
2013-11-15 15:44:00,40.3,18.5,29.34,West,270,7.2,8.7,41,0.00,,,0.00,WUHU216HW,2013-11-15 22:44:00,
2013-11-15 15:45:00,40.3,18.9,29.34,WNW,293,6.0,8.7,42,0.00,,,0.00,WUHU216HW,2013-11-15 22:45:00,
2013-11-15 15:46:00,40.3,18.9,29.34,WNW,293,6.3,8.7,42,0.00,,,0.00,WUHU216HW,2013-11-15 22:46:00,
2013-11-15 15:48:00,40.3,18.5,29.34,NW,315,6.3,8.7,41,0.00,,,0.00,WUHU216HW,2013-11-15 22:48:00,
2013-11-15 15:49:00,40.3,18.9,29.34,WNW,293,7.6,9.2,42,0.00,,,0.00,WUHU216HW,2013-11-15 22:49:00,
2013-11-15 15:51:00,40.3,18.5,29.34,West,270,7.6,9.8,41,0.00,,,0.00,WUHU216HW,2013-11-15 22:51:00,
2013-11-15 15:54:00,40.1,18.8,29.34,WNW,293,6.3,9.8,42,0.00,,,0.00,WUHU216HW,2013-11-15 22:54:00,
2013-11-15 15:55:00,40.1,18.8,29.34,West,270,6.9,9.8,42,0.00,,,0.00,WUHU216HW,2013-11-15 22:55:00,
2013-11-15 15:56:00,40.1,18.8,29.34,SW,225,8.5,9.8,42,0.00,,,0.00,WUHU216HW,2013-11-15 22:56:00,
2013-11-15 15:57:00,40.0,18.6,29.33,West,270,4.0,9.8,42,0.00,,,0.00,WUHU216HW,2013-11-15 22:57:00,
2013-11-15 15:59:00,40.0,18.6,29.33,WSW,248,7.4,9.8,42,0.00,,,0.00,WUHU216HW,2013-11-15 22:59:00,
2013-11-15 16:00:00,40.0,18.6,29.33,WSW,248,7.4,9.8,42,0.00,,,0.00,WUHU216HW,2013-11-15 23:00:00,
2013-11-15 16:01:00,40.0,18.6,29.32,West,270,6.3,8.5,42,0.00,,,0.00,WUHU216HW,2013-11-15 23:01:00,
2013-11-15 16:02:00,40.0,18.6,29.32,SW,225,6.9,9.6,42,0.00,,,0.00,WUHU216HW,2013-11-15 23:02:00,
2013-11-15 16:05:00,40.0,18.6,29.32,WSW,248,7.6,9.8,42,0.00,,,0.00,WUHU216HW,2013-11-15 23:05:00,
2013-11-15 16:06:00,40.0,18.6,29.32,WSW,248,8.5,9.8,42,0.00,,,0.00,WUHU216HW,2013-11-15 23:06:00,
2013-11-15 16:07:00,40.0,18.6,29.32,WSW,248,7.6,9.8,42,0.00,,,0.00,WUHU216HW,2013-11-15 23:07:00,
2013-11-15 16:08:00,40.0,18.6,29.32,SW,225,7.2,9.8,42,0.00,,,0.00,WUHU216HW,2013-11-15 23:08:00,
2013-11-15 16:10:00,40.0,18.6,29.32,SW,225,6.3,9.8,42,0.00,,,0.00,WUHU216HW,2013-11-15 23:10:00,
2013-11-15 16:12:00,40.0,18.6,29.32,WSW,248,9.8,10.3,42,0.00,,,0.00,WUHU216HW,2013-11-15 23:12:00,
2013-11-15 16:13:00,40.0,18.6,29.32,WSW,248,5.8,10.3,42,0.00,,,0.00,WUHU216HW,2013-11-15 23:13:00,
2013-11-15 16:15:00,40.0,18.6,29.33,SW,225,8.3,10.3,42,0.00,,,0.00,WUHU216HW,2013-11-15 23:15:00,
2013-11-15 16:17:00,40.0,18.6,29.32,SSW,203,1.3,10.3,42,0.00,,,0.00,WUHU216HW,2013-11-15 23:17:00,
2013-11-15 16:18:00,40.0,19.2,29.32,SSW,203,3.1,10.3,43,0.00,,,0.00,WUHU216HW,2013-11-15 23:18:00,
2013-11-15 16:20:00,40.0,19.2,29.32,SSW,203,3.1,10.3,43,0.00,,,0.00,WUHU216HW,2013-11-15 23:20:00,
2013-11-15 16:21:00,40.0,19.2,29.32,South,180,2.9,10.3,43,0.00,,,0.00,WUHU216HW,2013-11-15 23:21:00,
2013-11-15 16:22:00,40.0,19.2,29.33,SSW,203,9.2,9.6,43,0.00,,,0.00,WUHU216HW,2013-11-15 23:22:00,
2013-11-15 16:23:00,40.0,19.2,29.33,SSW,203,7.8,9.6,43,0.00,,,0.00,WUHU216HW,2013-11-15 23:23:00,
2013-11-15 16:25:00,39.8,19.0,29.32,SSW,203,9.2,9.4,43,0.00,,,0.00,WUHU216HW,2013-11-15 23:25:00,
2013-11-15 16:26:00,40.0,19.2,29.32,SSW,203,6.9,9.4,43,0.00,,,0.00,WUHU216HW,2013-11-15 23:26:00,
2013-11-15 16:27:00,40.0,19.2,29.32,SSW,203,6.3,9.4,43,0.00,,,0.00,WUHU216HW,2013-11-15 23:27:00,
2013-11-15 16:28:00,39.8,19.0,29.32,SSW,203,6.3,9.4,43,0.00,,,0.00,WUHU216HW,2013-11-15 23:28:00,
2013-11-15 16:30:00,40.0,19.2,29.32,SW,225,1.8,9.4,43,0.00,,,0.00,WUHU216HW,2013-11-15 23:30:00,
2013-11-15 16:31:00,40.0,19.2,29.32,SW,225,1.8,9.4,43,0.00,,,0.00,WUHU216HW,2013-11-15 23:31:00,
2013-11-15 16:32:00,40.0,19.2,29.32,WSW,248,2.2,9.2,43,0.00,,,0.00,WUHU216HW,2013-11-15 23:32:00,
2013-11-15 16:33:00,40.0,19.2,29.32,SW,225,4.0,9.2,43,0.00,,,0.00,WUHU216HW,2013-11-15 23:33:00,
2013-11-15 16:36:00,39.8,18.5,29.32,West,270,3.4,7.6,42,0.00,,,0.00,WUHU216HW,2013-11-15 23:36:00,
2013-11-15 16:37:00,39.6,18.8,29.32,WSW,248,4.5,6.3,43,0.00,,,0.00,WUHU216HW,2013-11-15 23:37:00,
2013-11-15 16:38:00,39.8,19.0,29.32,WSW,248,4.7,6.3,43,0.00,,,0.00,WUHU216HW,2013-11-15 23:38:00,
2013-11-15 16:41:00,39.6,18.8,29.32,WNW,293,0.4,4.7,43,0.00,,,0.00,WUHU216HW,2013-11-15 23:41:00,
2013-11-15 16:43:00,39.6,19.4,29.32,NNW,338,3.4,4.7,44,0.00,,,0.00,WUHU216HW,2013-11-15 23:43:00,
2013-11-15 16:44:00,39.4,19.7,29.32,NNW,338,2.5,4.7,45,0.00,,,0.00,WUHU216HW,2013-11-15 23:44:00,
2013-11-15 16:46:00,38.9,19.7,29.32,NW,315,4.3,6.3,46,0.00,,,0.00,WUHU216HW,2013-11-15 23:46:00,
2013-11-15 16:47:00,38.5,19.5,29.32,NNW,338,6.7,6.7,46,0.00,,,0.00,WUHU216HW,2013-11-15 23:47:00,
2013-11-15 16:48:00,38.5,19.9,29.32,NW,315,7.2,7.2,47,0.00,,,0.00,WUHU216HW,2013-11-15 23:48:00,
2013-11-15 16:49:00,38.2,19.6,29.32,NNW,338,5.6,7.2,47,0.00,,,0.00,WUHU216HW,2013-11-15 23:49:00,
2013-11-15 16:51:00,37.8,19.8,29.32,NW,315,6.5,7.2,48,0.00,,,0.00,WUHU216HW,2013-11-15 23:51:00,
2013-11-15 16:53:00,37.6,20.2,29.32,NW,315,6.7,8.1,49,0.00,,,0.00,WUHU216HW,2013-11-15 23:53:00,
2013-11-15 16:54:00,37.4,20.0,29.32,NW,315,7.6,8.1,49,0.00,,,0.00,WUHU216HW,2013-11-15 23:54:00,
2013-11-15 16:56:00,37.3,19.8,29.32,NW,315,7.4,8.1,49,0.00,,,0.00,WUHU216HW,2013-11-15 23:56:00,
2013-11-15 16:58:00,37.1,20.2,29.32,NW,315,5.4,8.1,50,0.00,,,0.00,WUHU216HW,2013-11-15 23:58:00,
2013-11-15 16:59:00,37.1,20.2,29.32,NW,315,6.3,8.1,50,0.00,,,0.00,WUHU216HW,2013-11-15 23:59:00,
2013-11-15 17:02:00,36.9,20.1,29.32,NNW,338,7.2,7.6,50,0.00,,,0.00,WUHU216HW,2013-11-16 00:02:00,
2013-11-15 17:03:00,36.7,19.9,29.32,NW,315,4.7,7.6,50,0.00,,,0.00,WUHU216HW,2013-11-16 00:03:00,
2013-11-15 17:04:00,36.9,20.1,29.32,NW,315,4.7,7.6,50,0.00,,,0.00,WUHU216HW,2013-11-16 00:04:00,
2013-11-15 17:05:00,36.9,20.1,29.32,WNW,293,5.1,7.6,50,0.00,,,0.00,WUHU216HW,2013-11-16 00:05:00,
2013-11-15 17:07:00,36.7,19.9,29.32,WNW,293,5.6,7.6,50,0.00,,,0.00,WUHU216HW,2013-11-16 00:07:00,
2013-11-15 17:08:00,36.7,19.9,29.32,West,270,5.1,7.6,50,0.00,,,0.00,WUHU216HW,2013-11-16 00:08:00,
2013-11-15 17:09:00,36.7,19.9,29.32,WNW,293,4.5,7.6,50,0.00,,,0.00,WUHU216HW,2013-11-16 00:09:00,
2013-11-15 17:10:00,36.5,19.7,29.32,West,270,4.0,7.6,50,0.00,,,0.00,WUHU216HW,2013-11-16 00:10:00,
2013-11-15 17:12:00,36.5,20.2,29.31,West,270,4.3,6.7,51,0.00,,,0.00,WUHU216HW,2013-11-16 00:12:00,
2013-11-15 17:14:00,36.5,19.7,29.31,WNW,293,3.6,6.3,50,0.00,,,0.00,WUHU216HW,2013-11-16 00:14:00,
2013-11-15 17:15:00,36.4,20.0,29.31,West,270,4.0,6.3,51,0.00,,,0.00,WUHU216HW,2013-11-16 00:15:00,
2013-11-15 17:17:00,36.4,20.0,29.31,West,270,5.4,6.0,51,0.00,,,0.00,WUHU216HW,2013-11-16 00:17:00,
2013-11-15 17:19:00,36.4,20.0,29.31,NW,315,4.9,6.9,51,0.00,,,0.00,WUHU216HW,2013-11-16 00:19:00,
2013-11-15 17:20:00,36.4,20.0,29.31,NW,315,5.1,6.9,51,0.00,,,0.00,WUHU216HW,2013-11-16 00:20:00,
2013-11-15 17:21:00,36.4,20.0,29.32,West,270,5.8,6.9,51,0.00,,,0.00,WUHU216HW,2013-11-16 00:21:00,
2013-11-15 17:22:00,36.4,20.0,29.32,North,0,3.4,6.9,51,0.00,,,0.00,WUHU216HW,2013-11-16 00:22:00,
2013-11-15 17:24:00,36.5,19.7,29.32,SW,225,5.4,6.9,50,0.00,,,0.00,WUHU216HW,2013-11-16 00:24:00,
2013-11-15 17:25:00,36.5,19.7,29.32,SW,225,4.9,6.9,50,0.00,,,0.00,WUHU216HW,2013-11-16 00:25:00,
2013-11-15 17:27:00,36.9,19.5,29.32,West,270,4.3,11.9,49,0.00,,,0.00,WUHU216HW,2013-11-16 00:27:00,
2013-11-15 17:28:00,36.9,19.5,29.32,West,270,5.4,11.9,49,0.00,,,0.00,WUHU216HW,2013-11-16 00:28:00,
2013-11-15 17:29:00,37.1,19.7,29.32,WNW,293,6.3,11.9,49,0.00,,,0.00,WUHU216HW,2013-11-16 00:29:00,
2013-11-15 17:30:00,37.1,19.7,29.31,WNW,293,1.8,11.9,49,0.00,,,0.00,WUHU216HW,2013-11-16 00:30:00,
2013-11-15 17:32:00,37.1,19.7,29.32,NW,315,0.9,11.9,49,0.00,,,0.00,WUHU216HW,2013-11-16 00:32:00,
2013-11-15 17:33:00,37.1,19.7,29.32,NNW,338,1.1,11.9,49,0.00,,,0.00,WUHU216HW,2013-11-16 00:33:00,
2013-11-15 17:34:00,37.1,19.7,29.32,NW,315,1.8,11.9,49,0.00,,,0.00,WUHU216HW,2013-11-16 00:34:00,
2013-11-15 17:35:00,36.9,18.5,29.31,WNW,293,4.0,11.9,47,0.00,,,0.00,WUHU216HW,2013-11-16 00:35:00,
2013-11-15 17:38:00,37.1,18.6,29.31,NW,315,3.1,6.3,47,0.00,,,0.00,WUHU216HW,2013-11-16 00:38:00,
2013-11-15 17:39:00,37.3,18.3,29.31,WSW,248,3.4,6.3,46,0.00,,,0.00,WUHU216HW,2013-11-16 00:39:00,
2013-11-15 17:42:00,38.0,18.4,29.31,SW,225,3.6,8.3,45,0.00,,,0.00,WUHU216HW,2013-11-16 00:42:00,
2013-11-15 17:43:00,38.2,18.5,29.31,WSW,248,4.0,8.3,45,0.00,,,0.00,WUHU216HW,2013-11-16 00:43:00,
2013-11-15 17:44:00,38.3,18.7,29.31,SSW,203,2.0,8.3,45,0.00,,,0.00,WUHU216HW,2013-11-16 00:44:00,
2013-11-15 17:45:00,38.3,18.7,29.31,SSW,203,2.0,8.3,45,0.00,,,0.00,WUHU216HW,2013-11-16 00:45:00,
2013-11-15 17:47:00,38.3,18.7,29.31,SSW,203,1.6,8.3,45,0.00,,,0.00,WUHU216HW,2013-11-16 00:47:00,
2013-11-15 17:48:00,38.3,19.3,29.31,SSE,158,2.7,8.3,46,0.00,,,0.00,WUHU216HW,2013-11-16 00:48:00,
2013-11-15 17:49:00,38.3,19.3,29.31,ESE,113,1.1,8.3,46,0.00,,,0.00,WUHU216HW,2013-11-16 00:49:00,
2013-11-15 17:50:00,38.3,19.3,29.31,ESE,113,0.4,8.3,46,0.00,,,0.00,WUHU216HW,2013-11-16 00:50:00,
2013-11-15 17:52:00,38.2,19.1,29.31,NE,45,2.0,4.5,46,0.00,,,0.00,WUHU216HW,2013-11-16 00:52:00,
2013-11-15 17:53:00,38.0,19.4,29.31,ENE,68,4.0,4.5,47,0.00,,,0.00,WUHU216HW,2013-11-16 00:53:00,
2013-11-15 17:54:00,37.8,19.3,29.31,NE,45,2.5,4.3,47,0.00,,,0.00,WUHU216HW,2013-11-16 00:54:00,
2013-11-15 17:55:00,37.8,19.3,29.31,ENE,68,2.5,4.3,47,0.00,,,0.00,WUHU216HW,2013-11-16 00:55:00,
2013-11-15 17:57:00,37.4,19.4,29.31,NE,45,2.9,4.3,48,0.00,,,0.00,WUHU216HW,2013-11-16 00:57:00,
2013-11-15 17:58:00,37.3,19.4,29.31,ENE,68,2.9,4.3,48,0.00,,,0.00,WUHU216HW,2013-11-16 00:58:00,
2013-11-15 17:59:00,37.3,19.4,29.31,NNE,23,1.8,4.3,48,0.00,,,0.00,WUHU216HW,2013-11-16 00:59:00,
2013-11-15 18:00:00,37.3,19.8,29.31,NNE,23,1.8,4.3,49,0.00,,,0.00,WUHU216HW,2013-11-16 01:00:00,
2013-11-15 18:02:00,36.9,19.5,29.31,NNE,23,2.2,4.3,49,0.00,,,0.00,WUHU216HW,2013-11-16 01:02:00,
2013-11-15 18:03:00,36.7,19.4,29.31,North,0,1.1,4.3,49,0.00,,,0.00,WUHU216HW,2013-11-16 01:03:00,
2013-11-15 18:04:00,36.7,19.9,29.31,North,0,1.1,2.9,50,0.00,,,0.00,WUHU216HW,2013-11-16 01:04:00,
2013-11-15 18:05:00,36.7,19.9,29.31,NNW,338,0.9,2.9,50,0.00,,,0.00,WUHU216HW,2013-11-16 01:05:00,
2013-11-15 18:08:00,36.5,19.7,29.31,North,0,1.1,2.9,50,0.00,,,0.00,WUHU216HW,2013-11-16 01:08:00,
2013-11-15 18:09:00,36.4,19.5,29.31,North,0,1.1,2.7,50,0.00,,,0.00,WUHU216HW,2013-11-16 01:09:00,
2013-11-15 18:10:00,36.4,19.5,29.31,North,0,2.9,2.9,50,0.00,,,0.00,WUHU216HW,2013-11-16 01:10:00,
2013-11-15 18:13:00,36.4,20.0,29.31,North,0,3.6,3.8,51,0.00,,,0.00,WUHU216HW,2013-11-16 01:13:00,
2013-11-15 18:14:00,36.4,20.0,29.31,North,0,3.8,3.8,51,0.00,,,0.00,WUHU216HW,2013-11-16 01:14:00,
2013-11-15 18:15:00,36.4,20.0,29.30,North,0,3.8,4.0,51,0.00,,,0.00,WUHU216HW,2013-11-16 01:15:00,
2013-11-15 18:18:00,36.2,20.3,29.31,NW,315,4.5,4.5,52,0.00,,,0.00,WUHU216HW,2013-11-16 01:18:00,
2013-11-15 18:19:00,36.0,20.1,29.31,NW,315,4.7,4.7,52,0.00,,,0.00,WUHU216HW,2013-11-16 01:19:00,
2013-11-15 18:20:00,36.0,20.1,29.31,NNW,338,3.4,5.4,52,0.00,,,0.00,WUHU216HW,2013-11-16 01:20:00,
2013-11-15 18:21:00,36.0,20.1,29.31,NW,315,3.4,5.4,52,0.00,,,0.00,WUHU216HW,2013-11-16 01:21:00,
2013-11-15 18:24:00,36.0,20.1,29.30,North,0,1.8,5.4,52,0.00,,,0.00,WUHU216HW,2013-11-16 01:24:00,
2013-11-15 18:25:00,36.0,20.1,29.30,NNE,23,1.1,5.4,52,0.00,,,0.00,WUHU216HW,2013-11-16 01:25:00,
2013-11-15 18:26:00,36.0,20.1,29.30,NNE,23,1.1,5.4,52,0.00,,,0.00,WUHU216HW,2013-11-16 01:26:00,
2013-11-15 18:27:00,36.0,20.1,29.30,NE,45,0.4,5.4,52,0.00,,,0.00,WUHU216HW,2013-11-16 01:27:00,
2013-11-15 18:29:00,36.0,19.6,29.30,NE,45,0.0,5.4,51,0.00,,,0.00,WUHU216HW,2013-11-16 01:29:00,
2013-11-15 18:31:00,36.0,19.6,29.30,WSW,248,0.7,3.1,51,0.00,,,0.00,WUHU216HW,2013-11-16 01:31:00,
2013-11-15 18:32:00,36.0,19.6,29.30,WSW,248,0.4,1.8,51,0.00,,,0.00,WUHU216HW,2013-11-16 01:32:00,
2013-11-15 18:34:00,36.0,19.6,29.30,WSW,248,0.0,1.6,51,0.00,,,0.00,WUHU216HW,2013-11-16 01:34:00,
2013-11-15 18:36:00,36.2,19.8,29.30,WSW,248,0.0,1.1,51,0.00,,,0.00,WUHU216HW,2013-11-16 01:36:00,
2013-11-15 18:38:00,36.2,19.8,29.30,North,0,0.7,0.9,51,0.00,,,0.00,WUHU216HW,2013-11-16 01:38:00,
2013-11-15 18:39:00,36.2,19.8,29.30,NNE,23,0.9,1.3,51,0.00,,,0.00,WUHU216HW,2013-11-16 01:39:00,
2013-11-15 18:41:00,36.2,19.8,29.30,NE,45,2.5,2.5,51,0.00,,,0.00,WUHU216HW,2013-11-16 01:41:00,
2013-11-15 18:43:00,36.2,19.8,29.30,ENE,68,0.4,2.5,51,0.00,,,0.00,WUHU216HW,2013-11-16 01:43:00,
2013-11-15 18:44:00,36.2,19.8,29.30,SE,135,0.4,2.5,51,0.00,,,0.00,WUHU216HW,2013-11-16 01:44:00,
2013-11-15 18:46:00,36.2,19.8,29.30,SE,135,0.7,2.5,51,0.00,,,0.00,WUHU216HW,2013-11-16 01:46:00,
2013-11-15 18:47:00,36.2,19.8,29.30,SSE,158,1.1,2.5,51,0.00,,,0.00,WUHU216HW,2013-11-16 01:47:00,
2013-11-15 18:48:00,36.2,19.8,29.30,SE,135,0.0,2.5,51,0.00,,,0.00,WUHU216HW,2013-11-16 01:48:00,
2013-11-15 18:49:00,36.4,20.0,29.30,SSW,203,0.7,2.5,51,0.00,,,0.00,WUHU216HW,2013-11-16 01:49:00,
2013-11-15 18:50:00,36.4,20.0,29.30,SSW,203,1.1,2.5,51,0.00,,,0.00,WUHU216HW,2013-11-16 01:50:00,
2013-11-15 18:51:00,36.4,20.0,29.30,SSW,203,1.1,1.8,51,0.00,,,0.00,WUHU216HW,2013-11-16 01:51:00,
2013-11-15 18:52:00,36.4,20.0,29.30,South,180,1.1,1.8,51,0.00,,,0.00,WUHU216HW,2013-11-16 01:52:00,
2013-11-15 18:53:00,36.4,20.0,29.30,SSE,158,1.1,1.8,51,0.00,,,0.00,WUHU216HW,2013-11-16 01:53:00,
2013-11-15 18:55:00,36.4,20.0,29.30,SSE,158,1.1,1.8,51,0.00,,,0.00,WUHU216HW,2013-11-16 01:55:00,
2013-11-15 18:56:00,36.4,20.0,29.30,SSW,203,0.4,1.8,51,0.00,,,0.00,WUHU216HW,2013-11-16 01:56:00,
2013-11-15 18:57:00,36.4,20.0,29.30,SSE,158,0.2,1.8,51,0.00,,,0.00,WUHU216HW,2013-11-16 01:57:00,
2013-11-15 18:58:00,36.2,19.8,29.30,East,90,1.8,1.8,51,0.00,,,0.00,WUHU216HW,2013-11-16 01:58:00,
2013-11-15 19:00:00,36.2,19.8,29.30,ESE,113,2.2,2.7,51,0.00,,,0.00,WUHU216HW,2013-11-16 02:00:00,
2013-11-15 19:01:00,36.2,19.8,29.30,South,180,1.1,2.7,51,0.00,,,0.00,WUHU216HW,2013-11-16 02:01:00,
2013-11-15 19:02:00,36.2,19.8,29.30,South,180,2.9,2.9,51,0.00,,,0.00,WUHU216HW,2013-11-16 02:02:00,
2013-11-15 19:03:00,36.2,19.8,29.30,SSW,203,2.9,4.0,51,0.00,,,0.00,WUHU216HW,2013-11-16 02:03:00,
2013-11-15 19:05:00,36.2,20.3,29.30,SW,225,5.4,5.4,52,0.00,,,0.00,WUHU216HW,2013-11-16 02:05:00,
2013-11-15 19:07:00,36.2,20.3,29.30,SW,225,3.4,5.4,52,0.00,,,0.00,WUHU216HW,2013-11-16 02:07:00,
2013-11-15 19:08:00,36.2,20.3,29.30,SSW,203,4.7,5.4,52,0.00,,,0.00,WUHU216HW,2013-11-16 02:08:00,
2013-11-15 19:10:00,36.2,19.8,29.30,SSW,203,1.8,5.4,51,0.00,,,0.00,WUHU216HW,2013-11-16 02:10:00,
2013-11-15 19:12:00,36.2,19.8,29.29,SSE,158,2.0,5.4,51,0.00,,,0.00,WUHU216HW,2013-11-16 02:12:00,
2013-11-15 19:13:00,36.4,20.0,29.29,SE,135,1.8,5.4,51,0.00,,,0.00,WUHU216HW,2013-11-16 02:13:00,
2013-11-15 19:15:00,36.2,19.8,29.29,East,90,1.3,5.4,51,0.00,,,0.00,WUHU216HW,2013-11-16 02:15:00,
2013-11-15 19:17:00,36.4,20.4,29.29,West,270,3.4,5.4,52,0.00,,,0.00,WUHU216HW,2013-11-16 02:17:00,
2013-11-15 19:18:00,36.4,20.4,29.29,West,270,3.4,5.4,52,0.00,,,0.00,WUHU216HW,2013-11-16 02:18:00,
2013-11-15 19:19:00,36.2,20.3,29.29,West,270,3.4,4.7,52,0.00,,,0.00,WUHU216HW,2013-11-16 02:19:00,
2013-11-15 19:20:00,36.2,19.8,29.30,WSW,248,4.7,4.7,51,0.00,,,0.00,WUHU216HW,2013-11-16 02:20:00,
2013-11-15 19:23:00,36.2,20.3,29.30,WNW,293,1.8,4.7,52,0.00,,,0.00,WUHU216HW,2013-11-16 02:23:00,
2013-11-15 19:24:00,36.2,20.3,29.29,WNW,293,2.2,4.7,52,0.00,,,0.00,WUHU216HW,2013-11-16 02:24:00,
2013-11-15 19:25:00,36.0,20.1,29.29,NNW,338,0.7,4.7,52,0.00,,,0.00,WUHU216HW,2013-11-16 02:25:00,
2013-11-15 19:26:00,36.0,20.1,29.29,NNW,338,0.7,4.7,52,0.00,,,0.00,WUHU216HW,2013-11-16 02:26:00,
2013-11-15 19:28:00,35.8,19.9,29.29,NNW,338,0.0,4.7,52,0.00,,,0.00,WUHU216HW,2013-11-16 02:28:00,
2013-11-15 19:29:00,35.8,19.9,29.29,NNW,338,0.0,4.7,52,0.00,,,0.00,WUHU216HW,2013-11-16 02:29:00,
2013-11-15 19:31:00,35.8,19.9,29.29,NNW,338,0.0,4.7,52,0.00,,,0.00,WUHU216HW,2013-11-16 02:31:00,
2013-11-15 19:33:00,35.8,19.9,29.29,WSW,248,0.7,2.2,52,0.00,,,0.00,WUHU216HW,2013-11-16 02:33:00,
2013-11-15 19:34:00,35.8,19.9,29.29,West,270,0.9,1.8,52,0.00,,,0.00,WUHU216HW,2013-11-16 02:34:00,
2013-11-15 19:36:00,35.8,19.9,29.28,NW,315,0.0,1.1,52,0.00,,,0.00,WUHU216HW,2013-11-16 02:36:00,
2013-11-15 19:37:00,35.8,19.9,29.28,NNW,338,0.7,1.1,52,0.00,,,0.00,WUHU216HW,2013-11-16 02:37:00,
2013-11-15 19:38:00,35.8,19.9,29.28,NNW,338,0.2,1.1,52,0.00,,,0.00,WUHU216HW,2013-11-16 02:38:00,
2013-11-15 19:39:00,35.8,19.9,29.28,NNW,338,0.2,1.1,52,0.00,,,0.00,WUHU216HW,2013-11-16 02:39:00,
2013-11-15 19:40:00,35.8,19.9,29.28,NNW,338,0.7,1.1,52,0.00,,,0.00,WUHU216HW,2013-11-16 02:40:00,
2013-11-15 19:41:00,35.8,19.9,29.28,NNW,338,0.2,1.1,52,0.00,,,0.00,WUHU216HW,2013-11-16 02:41:00,
2013-11-15 19:42:00,36.0,20.1,29.28,West,270,1.1,1.1,52,0.00,,,0.00,WUHU216HW,2013-11-16 02:42:00,
2013-11-15 19:43:00,35.8,19.9,29.28,West,270,0.7,1.1,52,0.00,,,0.00,WUHU216HW,2013-11-16 02:43:00,
2013-11-15 19:44:00,35.8,19.9,29.28,West,270,0.4,1.1,52,0.00,,,0.00,WUHU216HW,2013-11-16 02:44:00,
2013-11-15 19:45:00,35.8,19.9,29.28,West,270,0.0,1.1,52,0.00,,,0.00,WUHU216HW,2013-11-16 02:45:00,
2013-11-15 19:46:00,35.8,19.9,29.28,West,270,1.1,1.1,52,0.00,,,0.00,WUHU216HW,2013-11-16 02:46:00,
2013-11-15 19:47:00,35.8,20.3,29.28,West,270,2.9,2.9,53,0.00,,,0.00,WUHU216HW,2013-11-16 02:47:00,
2013-11-15 19:48:00,35.8,20.3,29.28,WNW,293,2.9,3.1,53,0.00,,,0.00,WUHU216HW,2013-11-16 02:48:00,
2013-11-15 19:49:00,35.6,20.2,29.28,WNW,293,2.2,3.1,53,0.00,,,0.00,WUHU216HW,2013-11-16 02:49:00,
2013-11-15 19:50:00,35.6,20.2,29.28,WNW,293,2.2,3.1,53,0.00,,,0.00,WUHU216HW,2013-11-16 02:50:00,
2013-11-15 19:52:00,35.5,20.0,29.28,NW,315,1.8,3.1,53,0.00,,,0.00,WUHU216HW,2013-11-16 02:52:00,
2013-11-15 19:53:00,35.5,20.0,29.28,NW,315,1.8,3.1,53,0.00,,,0.00,WUHU216HW,2013-11-16 02:53:00,
2013-11-15 19:54:00,35.3,19.8,29.28,WNW,293,1.6,3.1,53,0.00,,,0.00,WUHU216HW,2013-11-16 02:54:00,
2013-11-15 19:55:00,35.3,19.8,29.28,West,270,0.7,3.1,53,0.00,,,0.00,WUHU216HW,2013-11-16 02:55:00,
2013-11-15 19:57:00,35.5,20.0,29.27,West,270,1.1,3.1,53,0.00,,,0.00,WUHU216HW,2013-11-16 02:57:00,
2013-11-15 19:58:00,35.3,19.8,29.27,NW,315,1.8,2.9,53,0.00,,,0.00,WUHU216HW,2013-11-16 02:58:00,
2013-11-15 19:59:00,35.3,19.8,29.27,NW,315,1.3,2.5,53,0.00,,,0.00,WUHU216HW,2013-11-16 02:59:00,
2013-11-15 20:01:00,35.3,20.3,29.28,WNW,293,2.5,2.5,54,0.00,,,0.00,WUHU216HW,2013-11-16 03:01:00,
2013-11-15 20:02:00,35.3,20.3,29.27,WNW,293,1.8,2.5,54,0.00,,,0.00,WUHU216HW,2013-11-16 03:02:00,
2013-11-15 20:03:00,35.3,20.3,29.27,WNW,293,0.9,2.5,54,0.00,,,0.00,WUHU216HW,2013-11-16 03:03:00,
2013-11-15 20:04:00,35.3,19.8,29.27,WNW,293,0.7,2.5,53,0.00,,,0.00,WUHU216HW,2013-11-16 03:04:00,
2013-11-15 20:05:00,35.3,19.8,29.27,West,270,0.0,2.5,53,0.00,,,0.00,WUHU216HW,2013-11-16 03:05:00,
2013-11-15 20:06:00,35.3,19.8,29.27,West,270,0.0,2.5,53,0.00,,,0.00,WUHU216HW,2013-11-16 03:06:00,
2013-11-15 20:07:00,35.3,19.8,29.27,SE,135,0.4,2.5,53,0.00,,,0.00,WUHU216HW,2013-11-16 03:07:00,
2013-11-15 20:08:00,35.3,20.3,29.27,SSE,158,2.7,2.7,54,0.00,,,0.00,WUHU216HW,2013-11-16 03:08:00,
2013-11-15 20:09:00,35.3,20.3,29.26,SSE,158,2.0,2.7,54,0.00,,,0.00,WUHU216HW,2013-11-16 03:09:00,
2013-11-15 20:10:00,35.3,20.3,29.26,SSE,158,1.6,2.7,54,0.00,,,0.00,WUHU216HW,2013-11-16 03:10:00,
2013-11-15 20:11:00,35.3,20.3,29.26,SSE,158,1.3,2.7,54,0.00,,,0.00,WUHU216HW,2013-11-16 03:11:00,
2013-11-15 20:12:00,35.3,20.3,29.26,SE,135,1.1,2.7,54,0.00,,,0.00,WUHU216HW,2013-11-16 03:12:00,
2013-11-15 20:14:00,35.1,20.1,29.26,SSW,203,2.5,2.7,54,0.00,,,0.00,WUHU216HW,2013-11-16 03:14:00,
2013-11-15 20:16:00,35.1,20.1,29.26,SSW,203,3.1,5.8,54,0.00,,,0.00,WUHU216HW,2013-11-16 03:16:00,
2013-11-15 20:17:00,35.1,20.1,29.26,South,180,2.0,5.8,54,0.00,,,0.00,WUHU216HW,2013-11-16 03:17:00,
2013-11-15 20:19:00,35.1,20.1,29.27,WSW,248,2.5,5.8,54,0.00,,,0.00,WUHU216HW,2013-11-16 03:19:00,
2013-11-15 20:21:00,35.1,20.1,29.27,WNW,293,2.5,5.8,54,0.00,,,0.00,WUHU216HW,2013-11-16 03:21:00,
2013-11-15 20:22:00,35.1,20.1,29.27,WNW,293,3.4,5.8,54,0.00,,,0.00,WUHU216HW,2013-11-16 03:22:00,
2013-11-15 20:24:00,35.3,20.3,29.27,WNW,293,4.0,4.5,54,0.00,,,0.00,WUHU216HW,2013-11-16 03:24:00,
2013-11-15 20:26:00,35.3,20.3,29.27,WNW,293,2.7,4.7,54,0.00,,,0.00,WUHU216HW,2013-11-16 03:26:00,
2013-11-15 20:27:00,35.3,20.3,29.27,NW,315,2.5,4.7,54,0.00,,,0.00,WUHU216HW,2013-11-16 03:27:00,
2013-11-15 20:29:00,35.3,20.3,29.26,NNW,338,1.3,4.7,54,0.00,,,0.00,WUHU216HW,2013-11-16 03:29:00,
2013-11-15 20:30:00,35.3,20.3,29.26,NNW,338,1.3,4.7,54,0.00,,,0.00,WUHU216HW,2013-11-16 03:30:00,
2013-11-15 20:31:00,35.3,20.3,29.26,NNW,338,0.4,4.7,54,0.00,,,0.00,WUHU216HW,2013-11-16 03:31:00,
2013-11-15 20:32:00,35.3,19.8,29.26,NNW,338,0.9,4.7,53,0.00,,,0.00,WUHU216HW,2013-11-16 03:32:00,
2013-11-15 20:33:00,35.3,19.8,29.26,NNW,338,0.4,4.7,53,0.00,,,0.00,WUHU216HW,2013-11-16 03:33:00,
2013-11-15 20:35:00,35.3,19.8,29.27,NNW,338,1.3,4.7,53,0.00,,,0.00,WUHU216HW,2013-11-16 03:35:00,
2013-11-15 20:36:00,35.3,19.5,29.27,NNW,338,1.8,2.5,52,0.00,,,0.00,WUHU216HW,2013-11-16 03:36:00,
2013-11-15 20:38:00,35.1,19.3,29.26,NW,315,1.8,1.8,52,0.00,,,0.00,WUHU216HW,2013-11-16 03:38:00,
2013-11-15 20:39:00,35.3,19.5,29.26,NW,315,1.8,1.8,52,0.00,,,0.00,WUHU216HW,2013-11-16 03:39:00,
2013-11-15 20:40:00,35.3,19.5,29.26,NNW,338,2.0,2.0,52,0.00,,,0.00,WUHU216HW,2013-11-16 03:40:00,
2013-11-15 20:42:00,35.1,19.6,29.26,NNW,338,0.9,2.0,53,0.00,,,0.00,WUHU216HW,2013-11-16 03:42:00,
2013-11-15 20:43:00,35.3,19.8,29.26,NNW,338,1.3,2.0,53,0.00,,,0.00,WUHU216HW,2013-11-16 03:43:00,
2013-11-15 20:44:00,35.1,19.6,29.26,NNW,338,3.1,3.1,53,0.00,,,0.00,WUHU216HW,2013-11-16 03:44:00,
2013-11-15 20:45:00,35.1,19.6,29.26,NNW,338,2.9,3.4,53,0.00,,,0.00,WUHU216HW,2013-11-16 03:45:00,
2013-11-15 20:47:00,34.9,19.4,29.27,WNW,293,2.5,3.4,53,0.00,,,0.00,WUHU216HW,2013-11-16 03:47:00,
2013-11-15 20:48:00,34.9,19.9,29.27,WNW,293,2.9,3.4,54,0.00,,,0.00,WUHU216HW,2013-11-16 03:48:00,
2013-11-15 20:49:00,34.9,19.9,29.27,WNW,293,3.1,3.4,54,0.00,,,0.00,WUHU216HW,2013-11-16 03:49:00,
2013-11-15 20:50:00,34.9,19.9,29.27,WNW,293,3.1,3.4,54,0.00,,,0.00,WUHU216HW,2013-11-16 03:50:00,
2013-11-15 20:51:00,34.9,19.9,29.27,WNW,293,3.1,3.4,54,0.00,,,0.00,WUHU216HW,2013-11-16 03:51:00,
2013-11-15 20:52:00,34.9,19.9,29.26,WNW,293,3.6,4.0,54,0.00,,,0.00,WUHU216HW,2013-11-16 03:52:00,
2013-11-15 20:53:00,34.9,19.9,29.26,NW,315,3.4,4.0,54,0.00,,,0.00,WUHU216HW,2013-11-16 03:53:00,
2013-11-15 20:54:00,34.9,19.9,29.26,NW,315,3.4,4.0,54,0.00,,,0.00,WUHU216HW,2013-11-16 03:54:00,
2013-11-15 20:55:00,34.9,19.9,29.26,WNW,293,3.4,4.0,54,0.00,,,0.00,WUHU216HW,2013-11-16 03:55:00,
2013-11-15 20:56:00,34.9,19.9,29.26,WNW,293,2.9,4.0,54,0.00,,,0.00,WUHU216HW,2013-11-16 03:56:00,
2013-11-15 20:57:00,34.9,19.9,29.26,West,270,3.8,4.0,54,0.00,,,0.00,WUHU216HW,2013-11-16 03:57:00,
2013-11-15 20:58:00,34.9,19.9,29.26,NW,315,5.4,5.4,54,0.00,,,0.00,WUHU216HW,2013-11-16 03:58:00,
2013-11-15 20:59:00,34.9,19.9,29.26,WNW,293,5.4,5.4,54,0.00,,,0.00,WUHU216HW,2013-11-16 03:59:00,
2013-11-15 21:01:00,34.9,19.9,29.26,WNW,293,3.4,5.4,54,0.00,,,0.00,WUHU216HW,2013-11-16 04:01:00,
2013-11-15 21:03:00,34.9,19.9,29.26,WNW,293,1.8,5.4,54,0.00,,,0.00,WUHU216HW,2013-11-16 04:03:00,
2013-11-15 21:04:00,34.9,19.9,29.26,NW,315,0.4,5.4,54,0.00,,,0.00,WUHU216HW,2013-11-16 04:04:00,
2013-11-15 21:06:00,34.9,19.9,29.26,WSW,248,1.6,5.4,54,0.00,,,0.00,WUHU216HW,2013-11-16 04:06:00,
2013-11-15 21:07:00,34.9,19.9,29.26,West,270,4.3,5.4,54,0.00,,,0.00,WUHU216HW,2013-11-16 04:07:00,
2013-11-15 21:08:00,34.9,19.9,29.26,SW,225,3.4,5.4,54,0.00,,,0.00,WUHU216HW,2013-11-16 04:08:00,
2013-11-15 21:09:00,34.9,19.9,29.26,SW,225,3.4,5.4,54,0.00,,,0.00,WUHU216HW,2013-11-16 04:09:00,
2013-11-15 21:10:00,34.9,19.9,29.26,WSW,248,1.8,4.9,54,0.00,,,0.00,WUHU216HW,2013-11-16 04:10:00,
2013-11-15 21:11:00,34.9,19.9,29.26,WSW,248,2.7,4.3,54,0.00,,,0.00,WUHU216HW,2013-11-16 04:11:00,
2013-11-15 21:12:00,34.9,19.9,29.26,WSW,248,2.5,4.3,54,0.00,,,0.00,WUHU216HW,2013-11-16 04:12:00,
2013-11-15 21:13:00,34.9,19.9,29.26,West,270,4.3,4.3,54,0.00,,,0.00,WUHU216HW,2013-11-16 04:13:00,
2013-11-15 21:14:00,34.9,19.9,29.26,West,270,3.6,4.3,54,0.00,,,0.00,WUHU216HW,2013-11-16 04:14:00,
2013-11-15 21:15:00,34.9,19.9,29.26,WSW,248,2.5,4.3,54,0.00,,,0.00,WUHU216HW,2013-11-16 04:15:00,
2013-11-15 21:17:00,34.9,19.9,29.26,WSW,248,3.4,4.3,54,0.00,,,0.00,WUHU216HW,2013-11-16 04:17:00,
2013-11-15 21:18:00,34.9,19.9,29.26,WSW,248,1.8,4.3,54,0.00,,,0.00,WUHU216HW,2013-11-16 04:18:00,
2013-11-15 21:19:00,34.9,19.9,29.26,West,270,3.6,4.5,54,0.00,,,0.00,WUHU216HW,2013-11-16 04:19:00,
2013-11-15 21:20:00,34.9,19.9,29.26,WNW,293,4.5,4.5,54,0.00,,,0.00,WUHU216HW,2013-11-16 04:20:00,
2013-11-15 21:22:00,34.9,20.3,29.26,West,270,4.0,5.1,55,0.00,,,0.00,WUHU216HW,2013-11-16 04:22:00,
2013-11-15 21:23:00,34.9,20.3,29.26,WNW,293,2.9,5.1,55,0.00,,,0.00,WUHU216HW,2013-11-16 04:23:00,
2013-11-15 21:24:00,34.9,20.3,29.26,West,270,2.9,5.1,55,0.00,,,0.00,WUHU216HW,2013-11-16 04:24:00,
2013-11-15 21:25:00,34.9,20.3,29.26,West,270,1.8,5.1,55,0.00,,,0.00,WUHU216HW,2013-11-16 04:25:00,
2013-11-15 21:27:00,34.9,20.3,29.26,WNW,293,2.5,5.1,55,0.00,,,0.00,WUHU216HW,2013-11-16 04:27:00,
2013-11-15 21:28:00,34.9,20.3,29.26,NNW,338,1.8,5.1,55,0.00,,,0.00,WUHU216HW,2013-11-16 04:28:00,
2013-11-15 21:29:00,34.9,20.3,29.26,NNW,338,1.6,5.1,55,0.00,,,0.00,WUHU216HW,2013-11-16 04:29:00,
2013-11-15 21:31:00,34.9,20.3,29.26,West,270,3.4,5.1,55,0.00,,,0.00,WUHU216HW,2013-11-16 04:31:00,
2013-11-15 21:32:00,34.9,20.3,29.25,SW,225,2.7,4.0,55,0.00,,,0.00,WUHU216HW,2013-11-16 04:32:00,
2013-11-15 21:33:00,34.7,20.2,29.25,SW,225,2.9,3.4,55,0.00,,,0.00,WUHU216HW,2013-11-16 04:33:00,
2013-11-15 21:34:00,34.7,20.2,29.25,SW,225,5.8,5.8,55,0.00,,,0.00,WUHU216HW,2013-11-16 04:34:00,
2013-11-15 21:35:00,34.7,20.2,29.25,WSW,248,6.3,6.3,55,0.00,,,0.00,WUHU216HW,2013-11-16 04:35:00,
2013-11-15 21:36:00,34.7,20.2,29.25,WNW,293,3.4,6.3,55,0.00,,,0.00,WUHU216HW,2013-11-16 04:36:00,
2013-11-15 21:37:00,34.7,20.2,29.25,NW,315,2.0,6.3,55,0.00,,,0.00,WUHU216HW,2013-11-16 04:37:00,
2013-11-15 21:38:00,34.7,20.2,29.25,NNW,338,2.0,6.3,55,0.00,,,0.00,WUHU216HW,2013-11-16 04:38:00,
2013-11-15 21:39:00,34.7,20.2,29.25,NNW,338,1.6,6.3,55,0.00,,,0.00,WUHU216HW,2013-11-16 04:39:00,
2013-11-15 21:40:00,34.7,20.2,29.25,NNW,338,1.3,6.3,55,0.00,,,0.00,WUHU216HW,2013-11-16 04:40:00,
2013-11-15 21:41:00,34.9,20.3,29.25,West,270,1.8,6.3,55,0.00,,,0.00,WUHU216HW,2013-11-16 04:41:00,
2013-11-15 21:43:00,34.9,20.3,29.25,West,270,3.6,6.3,55,0.00,,,0.00,WUHU216HW,2013-11-16 04:43:00,
2013-11-15 21:44:00,34.9,20.3,29.25,SW,225,4.0,6.3,55,0.00,,,0.00,WUHU216HW,2013-11-16 04:44:00,
2013-11-15 21:45:00,34.9,20.3,29.25,WSW,248,3.4,5.4,55,0.00,,,0.00,WUHU216HW,2013-11-16 04:45:00,
2013-11-15 21:46:00,34.9,19.9,29.25,West,270,3.4,4.7,54,0.00,,,0.00,WUHU216HW,2013-11-16 04:46:00,
2013-11-15 21:48:00,34.9,20.3,29.25,West,270,4.5,4.7,55,0.00,,,0.00,WUHU216HW,2013-11-16 04:48:00,
2013-11-15 21:49:00,34.9,20.3,29.25,West,270,3.4,4.7,55,0.00,,,0.00,WUHU216HW,2013-11-16 04:49:00,
2013-11-15 21:50:00,34.9,20.3,29.25,WSW,248,2.2,4.7,55,0.00,,,0.00,WUHU216HW,2013-11-16 04:50:00,
2013-11-15 21:51:00,34.9,20.3,29.25,SW,225,1.6,4.7,55,0.00,,,0.00,WUHU216HW,2013-11-16 04:51:00,
2013-11-15 21:52:00,34.9,20.3,29.25,WSW,248,2.2,4.7,55,0.00,,,0.00,WUHU216HW,2013-11-16 04:52:00,
2013-11-15 21:53:00,34.9,20.3,29.25,SW,225,2.0,4.7,55,0.00,,,0.00,WUHU216HW,2013-11-16 04:53:00,
2013-11-15 21:54:00,34.9,20.3,29.25,SW,225,2.7,4.7,55,0.00,,,0.00,WUHU216HW,2013-11-16 04:54:00,
2013-11-15 21:55:00,34.9,20.3,29.25,SW,225,3.6,4.7,55,0.00,,,0.00,WUHU216HW,2013-11-16 04:55:00,
2013-11-15 21:56:00,34.9,20.3,29.25,SW,225,2.9,4.7,55,0.00,,,0.00,WUHU216HW,2013-11-16 04:56:00,
2013-11-15 21:57:00,34.9,20.3,29.25,WSW,248,4.0,4.7,55,0.00,,,0.00,WUHU216HW,2013-11-16 04:57:00,
2013-11-15 21:58:00,34.9,20.3,29.25,SW,225,3.1,4.5,55,0.00,,,0.00,WUHU216HW,2013-11-16 04:58:00,
2013-11-15 21:59:00,34.7,20.2,29.25,SW,225,2.5,4.0,55,0.00,,,0.00,WUHU216HW,2013-11-16 04:59:00,
2013-11-15 22:00:00,34.7,20.2,29.25,SW,225,1.8,4.0,55,0.00,,,0.00,WUHU216HW,2013-11-16 05:00:00,
2013-11-15 22:01:00,34.7,20.2,29.25,SW,225,1.6,4.0,55,0.00,,,0.00,WUHU216HW,2013-11-16 05:01:00,
2013-11-15 22:02:00,34.7,20.2,29.25,SW,225,2.5,4.0,55,0.00,,,0.00,WUHU216HW,2013-11-16 05:02:00,
2013-11-15 22:06:00,34.6,20.0,29.25,West,270,1.6,4.0,55,0.00,,,0.00,WUHU216HW,2013-11-16 05:06:00,
2013-11-15 22:07:00,34.7,20.2,29.25,WSW,248,1.8,4.0,55,0.00,,,0.00,WUHU216HW,2013-11-16 05:07:00,
2013-11-15 22:11:00,34.7,20.2,29.25,WNW,293,0.2,2.5,55,0.00,,,0.00,WUHU216HW,2013-11-16 05:11:00,
2013-11-15 22:12:00,34.7,20.2,29.25,WSW,248,0.0,2.5,55,0.00,,,0.00,WUHU216HW,2013-11-16 05:12:00,
2013-11-15 22:13:00,34.7,20.2,29.25,SE,135,6.5,6.5,55,0.00,,,0.00,WUHU216HW,2013-11-16 05:13:00,
2013-11-15 22:16:00,34.9,20.3,29.25,ESE,113,4.5,6.5,55,0.00,,,0.00,WUHU216HW,2013-11-16 05:16:00,
2013-11-15 22:17:00,34.7,20.2,29.25,ESE,113,3.8,6.5,55,0.00,,,0.00,WUHU216HW,2013-11-16 05:17:00,
2013-11-15 22:18:00,34.7,20.2,29.25,East,90,3.8,6.5,55,0.00,,,0.00,WUHU216HW,2013-11-16 05:18:00,
2013-11-15 22:21:00,34.6,20.0,29.25,SE,135,2.9,6.5,55,0.00,,,0.00,WUHU216HW,2013-11-16 05:21:00,
2013-11-15 22:22:00,34.6,20.0,29.25,SE,135,2.5,6.5,55,0.00,,,0.00,WUHU216HW,2013-11-16 05:22:00,
2013-11-15 22:23:00,34.6,20.0,29.25,ESE,113,2.9,6.3,55,0.00,,,0.00,WUHU216HW,2013-11-16 05:23:00,
2013-11-15 22:26:00,34.4,19.8,29.24,East,90,1.6,4.9,55,0.00,,,0.00,WUHU216HW,2013-11-16 05:26:00,
2013-11-15 22:27:00,34.4,20.3,29.24,East,90,1.1,4.5,56,0.00,,,0.00,WUHU216HW,2013-11-16 05:27:00,
2013-11-15 22:28:00,34.4,20.3,29.24,East,90,2.0,4.5,56,0.00,,,0.00,WUHU216HW,2013-11-16 05:28:00,
2013-11-15 22:29:00,34.4,20.3,29.24,East,90,5.6,5.6,56,0.00,,,0.00,WUHU216HW,2013-11-16 05:29:00,
2013-11-15 22:32:00,34.2,20.1,29.24,ESE,113,4.0,6.5,56,0.00,,,0.00,WUHU216HW,2013-11-16 05:32:00,
2013-11-15 22:33:00,34.2,20.1,29.24,SSE,158,2.7,6.5,56,0.00,,,0.00,WUHU216HW,2013-11-16 05:33:00,
2013-11-15 22:36:00,34.2,20.1,29.24,ENE,68,0.7,6.5,56,0.00,,,0.00,WUHU216HW,2013-11-16 05:36:00,
2013-11-15 22:37:00,34.2,20.1,29.24,South,180,3.8,6.5,56,0.00,,,0.00,WUHU216HW,2013-11-16 05:37:00,
2013-11-15 22:38:00,34.2,20.1,29.24,WSW,248,6.9,6.9,56,0.00,,,0.00,WUHU216HW,2013-11-16 05:38:00,
2013-11-15 22:39:00,34.2,20.1,29.25,SSW,203,4.7,6.9,56,0.00,,,0.00,WUHU216HW,2013-11-16 05:39:00,
2013-11-15 22:41:00,34.2,20.1,29.24,West,270,6.7,6.9,56,0.00,,,0.00,WUHU216HW,2013-11-16 05:41:00,
2013-11-15 22:42:00,34.4,20.3,29.24,WNW,293,7.6,7.6,56,0.00,,,0.00,WUHU216HW,2013-11-16 05:42:00,
2013-11-15 22:43:00,34.9,20.8,29.24,West,270,9.8,9.8,56,0.00,,,0.00,WUHU216HW,2013-11-16 05:43:00,
2013-11-15 22:44:00,34.9,20.3,29.24,WNW,293,16.1,16.1,55,0.00,,,0.00,WUHU216HW,2013-11-16 05:44:00,
2013-11-15 22:46:00,36.4,20.9,29.24,SSW,203,5.6,17.0,53,0.00,,,0.00,WUHU216HW,2013-11-16 05:46:00,
2013-11-15 22:47:00,36.4,20.9,29.24,SSW,203,4.9,17.0,53,0.00,,,0.00,WUHU216HW,2013-11-16 05:47:00,
2013-11-15 22:48:00,36.5,21.0,29.24,WSW,248,4.0,17.0,53,0.00,,,0.00,WUHU216HW,2013-11-16 05:48:00,
2013-11-15 22:49:00,36.7,21.2,29.24,SW,225,5.1,17.0,53,0.00,,,0.00,WUHU216HW,2013-11-16 05:49:00,
2013-11-15 22:52:00,36.7,20.7,29.23,SE,135,2.9,17.0,52,0.00,,,0.00,WUHU216HW,2013-11-16 05:52:00,
2013-11-15 22:53:00,36.7,20.7,29.23,East,90,3.8,17.0,52,0.00,,,0.00,WUHU216HW,2013-11-16 05:53:00,
2013-11-15 22:54:00,36.7,20.7,29.23,ESE,113,4.3,17.0,52,0.00,,,0.00,WUHU216HW,2013-11-16 05:54:00,
2013-11-15 22:57:00,36.4,20.9,29.23,SE,135,0.9,5.4,53,0.00,,,0.00,WUHU216HW,2013-11-16 05:57:00,
2013-11-15 22:58:00,36.4,20.9,29.23,ENE,68,1.6,5.4,53,0.00,,,0.00,WUHU216HW,2013-11-16 05:58:00,
2013-11-15 22:59:00,36.4,20.9,29.23,SE,135,1.3,5.4,53,0.00,,,0.00,WUHU216HW,2013-11-16 05:59:00,
2013-11-15 23:00:00,36.4,20.9,29.23,SE,135,2.5,5.4,53,0.00,,,0.00,WUHU216HW,2013-11-16 06:00:00,
2013-11-15 23:03:00,36.2,20.7,29.23,SE,135,4.0,4.7,53,0.00,,,0.00,WUHU216HW,2013-11-16 06:03:00,
2013-11-15 23:04:00,36.0,21.0,29.23,SE,135,4.5,5.4,54,0.00,,,0.00,WUHU216HW,2013-11-16 06:04:00,
2013-11-15 23:05:00,36.0,20.5,29.23,SE,135,5.6,5.6,53,0.00,,,0.00,WUHU216HW,2013-11-16 06:05:00,
2013-11-15 23:08:00,35.8,20.8,29.23,SE,135,3.6,5.8,54,0.00,,,0.00,WUHU216HW,2013-11-16 06:08:00,
2013-11-15 23:09:00,35.6,20.6,29.23,SE,135,4.7,5.8,54,0.00,,,0.00,WUHU216HW,2013-11-16 06:09:00,
2013-11-15 23:11:00,35.6,20.6,29.23,SSE,158,3.1,5.8,54,0.00,,,0.00,WUHU216HW,2013-11-16 06:11:00,
2013-11-15 23:13:00,35.5,20.4,29.23,SE,135,3.4,5.8,54,0.00,,,0.00,WUHU216HW,2013-11-16 06:13:00,
2013-11-15 23:14:00,35.5,20.4,29.23,SE,135,3.4,5.8,54,0.00,,,0.00,WUHU216HW,2013-11-16 06:14:00,
2013-11-15 23:15:00,35.5,20.4,29.23,ESE,113,3.8,5.8,54,0.00,,,0.00,WUHU216HW,2013-11-16 06:15:00,
2013-11-15 23:16:00,35.3,20.3,29.23,SE,135,2.9,5.4,54,0.00,,,0.00,WUHU216HW,2013-11-16 06:16:00,
2013-11-15 23:18:00,35.3,20.3,29.23,ESE,113,2.5,4.7,54,0.00,,,0.00,WUHU216HW,2013-11-16 06:18:00,
2013-11-15 23:19:00,35.3,20.3,29.23,SE,135,1.1,4.7,54,0.00,,,0.00,WUHU216HW,2013-11-16 06:19:00,
2013-11-15 23:20:00,35.3,20.3,29.23,ESE,113,2.5,4.0,54,0.00,,,0.00,WUHU216HW,2013-11-16 06:20:00,
2013-11-15 23:21:00,35.3,20.3,29.23,SE,135,1.1,4.0,54,0.00,,,0.00,WUHU216HW,2013-11-16 06:21:00,
2013-11-15 23:23:00,35.3,20.3,29.23,ESE,113,3.4,3.8,54,0.00,,,0.00,WUHU216HW,2013-11-16 06:23:00,
2013-11-15 23:24:00,35.3,20.3,29.23,SSE,158,2.2,3.8,54,0.00,,,0.00,WUHU216HW,2013-11-16 06:24:00,
2013-11-15 23:25:00,35.3,20.3,29.23,SE,135,1.8,3.8,54,0.00,,,0.00,WUHU216HW,2013-11-16 06:25:00,
2013-11-15 23:26:00,35.1,20.1,29.23,SE,135,1.1,3.4,54,0.00,,,0.00,WUHU216HW,2013-11-16 06:26:00,
2013-11-15 23:28:00,35.1,20.1,29.23,ESE,113,1.8,3.4,54,0.00,,,0.00,WUHU216HW,2013-11-16 06:28:00,
2013-11-15 23:29:00,35.1,20.5,29.23,ENE,68,2.5,3.4,55,0.00,,,0.00,WUHU216HW,2013-11-16 06:29:00,
2013-11-15 23:30:00,35.1,20.5,29.23,ENE,68,3.1,3.4,55,0.00,,,0.00,WUHU216HW,2013-11-16 06:30:00,
2013-11-15 23:31:00,35.1,20.5,29.23,ENE,68,4.3,4.3,55,0.00,,,0.00,WUHU216HW,2013-11-16 06:31:00,
2013-11-15 23:33:00,34.9,20.8,29.23,North,0,1.3,4.7,56,0.00,,,0.00,WUHU216HW,2013-11-16 06:33:00,
2013-11-15 23:34:00,34.9,20.8,29.23,North,0,4.5,4.7,56,0.00,,,0.00,WUHU216HW,2013-11-16 06:34:00,
2013-11-15 23:35:00,34.9,20.8,29.23,NNE,23,1.8,4.7,56,0.00,,,0.00,WUHU216HW,2013-11-16 06:35:00,
2013-11-15 23:36:00,34.7,20.6,29.23,NNE,23,0.2,4.7,56,0.00,,,0.00,WUHU216HW,2013-11-16 06:36:00,
2013-11-15 23:38:00,34.7,20.6,29.23,North,0,1.3,4.7,56,0.00,,,0.00,WUHU216HW,2013-11-16 06:38:00,
2013-11-15 23:39:00,34.7,20.6,29.23,ENE,68,4.0,4.7,56,0.00,,,0.00,WUHU216HW,2013-11-16 06:39:00,
2013-11-15 23:40:00,34.7,20.6,29.23,ENE,68,4.0,4.7,56,0.00,,,0.00,WUHU216HW,2013-11-16 06:40:00,
2013-11-15 23:42:00,34.7,20.6,29.23,East,90,5.4,6.5,56,0.00,,,0.00,WUHU216HW,2013-11-16 06:42:00,
2013-11-15 23:43:00,34.7,20.6,29.23,East,90,4.7,6.5,56,0.00,,,0.00,WUHU216HW,2013-11-16 06:43:00,
2013-11-15 23:46:00,34.7,20.6,29.22,East,90,1.3,6.5,56,0.00,,,0.00,WUHU216HW,2013-11-16 06:46:00,
2013-11-15 23:47:00,34.9,20.8,29.22,East,90,2.5,6.5,56,0.00,,,0.00,WUHU216HW,2013-11-16 06:47:00,
2013-11-15 23:49:00,34.9,20.8,29.22,South,180,0.7,6.5,56,0.00,,,0.00,WUHU216HW,2013-11-16 06:49:00,
2013-11-15 23:52:00,34.7,20.6,29.22,ESE,113,3.4,6.0,56,0.00,,,0.00,WUHU216HW,2013-11-16 06:52:00,
2013-11-15 23:54:00,34.9,20.8,29.23,ESE,113,1.6,3.4,56,0.00,,,0.00,WUHU216HW,2013-11-16 06:54:00,
2013-11-15 23:57:00,34.9,20.8,29.22,ENE,68,0.7,3.4,56,0.00,,,0.00,WUHU216HW,2013-11-16 06:57:00,
2013-11-15 23:58:00,34.9,20.8,29.22,ENE,68,0.7,3.4,56,0.00,,,0.00,WUHU216HW,2013-11-16 06:58:00,
2013-11-15 23:59:00,34.9,20.8,29.22,ENE,68,3.4,3.4,56,0.00,,,0.00,WUHU216HW,2013-11-16 06:59:00,